GFSCGP_prec_precacc_036.txt.gz
Total_Precipitation_Accumulation
0.44 0.31 0.13 0.01 0.00 0.00 0.00 0.00 0.00 0.00 0.00 0.00 0.00 0.00 0.00 0.00 0.00 0.00 0.00 0.00 0.00 0.00 0.00 0.00 0.00 0.00 0.00 0.00 0.00 0.00 0.00 0.01 0.08 0.11 0.09 0.14 0.09 0.10 0.11 0.09 0.14 0.16 0.09 0.09
0.39 0.19 0.05 0.02 0.00 0.00 0.00 0.00 0.00 0.00 0.00 0.00 0.00 0.00 0.00 0.00 0.00 0.00 0.00 0.00 0.00 0.00 0.00 0.00 0.00 0.00 0.00 0.00 0.00 0.00 0.00 0.00 0.03 0.09 0.13 0.18 0.19 0.12 0.09 0.14 0.09 0.12 0.08 0.06
0.24 0.11 0.05 0.08 0.01 0.00 0.00 0.00 0.00 0.00 0.00 0.00 0.00 0.00 0.00 0.00 0.00 0.00 0.00 0.00 0.00 0.00 0.00 0.00 0.00 0.00 0.00 0.00 0.00 0.00 0.00 0.01 0.04 0.10 0.15 0.20 0.24 0.16 0.09 0.05 0.02 0.05 0.11 0.11
0.46 0.19 0.08 0.07 0.07 0.00 0.00 0.00 0.00 0.00 0.00 0.00 0.00 0.00 0.00 0.00 0.00 0.00 0.00 0.00 0.00 0.00 0.00 0.00 0.00 0.00 0.00 0.00 0.00 0.00 0.00 0.01 0.04 0.09 0.08 0.08 0.05 0.06 0.06 0.07 0.16 0.20 0.18 0.21
0.50 0.31 0.14 0.11 0.05 0.02 0.00 0.00 0.00 0.00 0.01 0.01 0.00 0.01 0.00 0.00 0.00 0.00 0.00 0.00 0.00 0.00 0.00 0.00 0.00 0.00 0.00 0.00 0.00 0.00 0.00 0.00 0.01 0.09 0.09 0.10 0.06 0.06 0.07 0.13 0.19 0.18 0.18 0.21
0.29 0.29 0.26 0.19 0.03 0.03 0.00 0.00 0.00 0.00 0.02 0.04 0.00 0.00 0.00 0.00 0.00 0.00 0.00 0.00 0.00 0.00 0.00 0.00 0.00 0.00 0.00 0.00 0.00 0.00 0.00 0.00 0.01 0.02 0.06 0.07 0.06 0.04 0.09 0.09 0.11 0.13 0.14 0.15
0.45 0.36 0.24 0.20 0.04 0.05 0.00 0.04 0.07 0.07 0.10 0.02 0.00 0.00 0.00 0.00 0.00 0.00 0.00 0.00 0.00 0.00 0.00 0.00 0.00 0.00 0.00 0.00 0.00 0.00 0.00 0.00 0.00 0.00 0.02 0.03 0.04 0.06 0.08 0.12 0.14 0.11 0.10 0.08
0.31 0.45 0.33 0.29 0.04 0.03 0.00 0.02 0.06 0.02 0.00 0.00 0.00 0.00 0.00 0.00 0.00 0.00 0.00 0.00 0.00 0.00 0.00 0.00 0.00 0.00 0.00 0.00 0.00 0.00 0.00 0.00 0.00 0.01 0.02 0.04 0.05 0.08 0.11 0.14 0.11 0.10 0.10 0.11
0.08 0.09 0.15 0.18 0.04 0.03 0.08 0.11 0.04 0.15 0.10 0.12 0.02 0.00 0.00 0.00 0.00 0.00 0.00 0.00 0.00 0.00 0.00 0.00 0.00 0.00 0.00 0.00 0.00 0.00 0.00 0.00 0.01 0.03 0.07 0.06 0.05 0.08 0.08 0.10 0.10 0.11 0.10 0.12
0.00 0.02 0.02 0.09 0.08 0.03 0.01 0.02 0.09 0.24 0.15 0.06 0.00 0.00 0.00 0.00 0.00 0.00 0.00 0.00 0.00 0.00 0.00 0.00 0.00 0.00 0.00 0.00 0.00 0.00 0.00 0.02 0.03 0.06 0.10 0.03 0.05 0.07 0.07 0.07 0.05 0.06 0.09 0.10
0.00 0.02 0.02 0.04 0.10 0.03 0.01 0.08 0.11 0.16 0.14 0.08 0.03 0.00 0.00 0.00 0.00 0.00 0.00 0.00 0.00 0.00 0.00 0.00 0.00 0.00 0.00 0.00 0.00 0.00 0.01 0.04 0.06 0.05 0.03 0.02 0.04 0.06 0.07 0.07 0.05 0.05 0.07 0.07
0.00 0.04 0.03 0.02 0.00 0.00 0.00 0.00 0.03 0.21 0.08 0.13 0.06 0.03 0.00 0.00 0.00 0.00 0.00 0.00 0.00 0.00 0.00 0.00 0.00 0.00 0.00 0.00 0.00 0.00 0.05 0.07 0.03 0.02 0.02 0.02 0.03 0.04 0.05 0.05 0.07 0.07 0.07 0.05
0.00 0.04 0.03 0.02 0.03 0.03 0.04 0.01 0.10 0.20 0.39 0.24 0.12 0.03 0.00 0.00 0.00 0.00 0.00 0.00 0.00 0.00 0.00 0.02 0.00 0.00 0.01 0.02 0.07 0.12 0.10 0.03 0.04 0.04 0.03 0.03 0.04 0.05 0.06 0.06 0.06 0.06 0.06 0.06
0.01 0.03 0.02 0.03 0.06 0.19 0.18 0.03 0.10 0.38 0.51 0.08 0.04 0.00 0.00 0.00 0.00 0.01 0.01 0.01 0.01 0.00 0.00 0.00 0.01 0.00 0.06 0.15 0.25 0.15 0.12 0.10 0.10 0.09 0.07 0.08 0.07 0.08 0.07 0.07 0.06 0.05 0.05 0.05
0.04 0.05 0.02 0.02 0.06 0.22 0.20 0.08 0.07 0.31 0.16 0.21 0.06 0.00 0.00 0.00 0.00 0.01 0.01 0.00 0.00 0.01 0.00 0.00 0.01 0.01 0.05 0.19 0.18 0.17 0.20 0.19 0.16 0.15 0.12 0.07 0.06 0.08 0.07 0.06 0.07 0.05 0.04 0.04
0.05 0.09 0.06 0.06 0.05 0.10 0.16 0.04 0.06 0.05 0.02 0.02 0.00 0.00 0.01 0.00 0.01 0.06 0.03 0.01 0.01 0.00 0.00 0.00 0.00 0.00 0.02 0.08 0.15 0.15 0.19 0.17 0.10 0.10 0.09 0.07 0.05 0.06 0.08 0.09 0.09 0.09 0.09 0.10
0.06 0.08 0.15 0.07 0.04 0.11 0.13 0.04 0.02 0.01 0.00 0.01 0.01 0.01 0.01 0.07 0.18 0.16 0.03 0.01 0.00 0.00 0.00 0.00 0.00 0.00 0.02 0.11 0.19 0.61 0.74 0.37 0.09 0.21 0.16 0.12 0.08 0.09 0.12 0.14 0.16 0.14 0.12 0.15
0.02 0.06 0.19 0.09 0.09 0.24 0.13 0.02 0.00 0.00 0.00 0.00 0.01 0.01 0.04 0.16 0.27 0.07 0.01 0.01 0.00 0.00 0.00 0.00 0.00 0.00 0.02 0.13 0.53 0.65 0.86 0.35 0.16 0.29 0.47 0.52 0.47 0.39 0.39 0.41 0.40 0.32 0.30 0.29
0.01 0.06 0.18 0.16 0.17 0.09 0.01 0.00 0.00 0.00 0.00 0.00 0.03 0.01 0.02 0.07 0.07 0.03 0.01 0.01 0.01 0.01 0.01 0.01 0.00 0.00 0.01 0.08 0.30 0.32 0.47 0.53 0.56 0.85 0.84 0.80 0.66 0.62 0.87 1.01 0.86 0.75 0.73 0.68
0.02 0.03 0.16 0.10 0.09 0.01 0.01 0.00 0.00 0.02 0.01 0.00 0.04 0.03 0.01 0.02 0.03 0.04 0.00 0.01 0.01 0.01 0.00 0.00 0.01 0.02 0.03 0.06 0.22 0.56 0.97 0.79 0.72 0.81 0.97 0.89 0.78 0.64 0.75 0.70 0.76 0.71 0.63 0.68
0.06 0.09 0.13 0.11 0.13 0.00 0.00 0.00 0.00 0.00 0.01 0.00 0.02 0.05 0.01 0.01 0.00 0.03 0.09 0.07 0.04 0.02 0.03 0.04 0.05 0.14 0.19 0.29 0.61 0.84 0.99 0.90 0.89 0.92 0.79 0.66 0.55 0.71 0.67 0.69 0.53 0.61 0.53 0.41
0.01 0.03 0.05 0.06 0.06 0.00 0.00 0.00 0.00 0.00 0.00 0.00 0.00 0.04 0.04 0.00 0.00 0.00 0.02 0.08 0.10 0.14 0.19 0.07 0.22 0.66 0.79 0.59 0.55 0.45 0.50 0.47 0.26 0.37 0.34 0.37 0.26 0.32 0.42 0.27 0.25 0.23 0.19 0.13
0.00 0.00 0.00 0.00 0.00 0.00 0.00 0.00 0.00 0.00 0.00 0.00 0.01 0.01 0.01 0.02 0.05 0.04 0.01 0.01 0.02 0.04 0.07 0.01 0.07 0.12 0.09 0.04 0.01 0.03 0.05 0.05 0.00 0.00 0.00 0.00 0.00 0.00 0.01 0.00 0.00 0.00 0.00 0.00
0.00 0.00 0.00 0.00 0.00 0.00 0.00 0.00 0.00 0.00 0.00 0.00 0.02 0.02 0.00 0.00 0.00 0.00 0.00 0.00 0.00 0.00 0.00 0.00 0.00 0.00 0.00 0.00 0.00 0.00 0.00 0.00 0.00 0.00 0.00 0.00 0.00 0.00 0.00 0.00 0.00 0.00 0.00 0.00
0.01 0.00 0.00 0.00 0.00 0.00 0.00 0.00 0.00 0.00 0.00 0.00 0.00 0.00 0.00 0.00 0.00 0.00 0.00 0.00 0.00 0.00 0.00 0.00 0.00 0.00 0.00 0.00 0.00 0.00 0.00 0.00 0.00 0.00 0.00 0.00 0.00 0.00 0.00 0.00 0.00 0.00 0.00 0.00
0.00 0.00 0.00 0.00 0.00 0.00 0.00 0.00 0.00 0.00 0.00 0.00 0.00 0.00 0.00 0.00 0.00 0.00 0.00 0.00 0.00 0.00 0.00 0.00 0.00 0.00 0.00 0.00 0.00 0.00 0.00 0.00 0.00 0.00 0.00 0.00 0.00 0.00 0.00 0.00 0.00 0.00 0.00 0.00

GFSCGP_prec_precacc_039.txt.gz
Total_Precipitation_Accumulation
0.56 0.43 0.15 0.01 0.00 0.00 0.00 0.00 0.00 0.00 0.00 0.00 0.00 0.00 0.00 0.00 0.00 0.00 0.00 0.00 0.00 0.00 0.00 0.00 0.00 0.00 0.00 0.00 0.00 0.00 0.00 0.01 0.08 0.11 0.09 0.14 0.10 0.12 0.14 0.14 0.18 0.20 0.11 0.10
0.55 0.25 0.05 0.02 0.00 0.00 0.00 0.00 0.00 0.00 0.00 0.00 0.00 0.00 0.00 0.00 0.00 0.00 0.00 0.00 0.00 0.00 0.00 0.00 0.00 0.00 0.00 0.00 0.00 0.00 0.00 0.00 0.03 0.09 0.13 0.18 0.19 0.12 0.09 0.14 0.10 0.14 0.11 0.10
0.31 0.13 0.05 0.08 0.01 0.00 0.00 0.00 0.00 0.00 0.00 0.00 0.00 0.00 0.00 0.00 0.00 0.00 0.00 0.00 0.00 0.00 0.00 0.00 0.00 0.00 0.00 0.00 0.00 0.00 0.00 0.01 0.04 0.10 0.15 0.20 0.24 0.16 0.09 0.05 0.02 0.05 0.11 0.13
0.48 0.20 0.08 0.07 0.07 0.00 0.00 0.00 0.00 0.00 0.00 0.00 0.00 0.00 0.00 0.00 0.00 0.00 0.00 0.00 0.00 0.00 0.00 0.00 0.00 0.00 0.00 0.00 0.00 0.00 0.00 0.01 0.04 0.09 0.08 0.08 0.05 0.06 0.06 0.07 0.16 0.20 0.18 0.21
0.52 0.31 0.15 0.12 0.05 0.02 0.00 0.00 0.00 0.00 0.01 0.01 0.00 0.01 0.00 0.00 0.00 0.00 0.00 0.00 0.00 0.00 0.00 0.00 0.00 0.00 0.00 0.00 0.00 0.00 0.00 0.00 0.01 0.09 0.09 0.10 0.06 0.06 0.07 0.13 0.19 0.18 0.18 0.21
0.29 0.29 0.28 0.21 0.04 0.03 0.00 0.00 0.00 0.00 0.02 0.04 0.00 0.00 0.00 0.00 0.00 0.00 0.00 0.00 0.00 0.00 0.00 0.00 0.00 0.00 0.00 0.00 0.00 0.00 0.00 0.00 0.01 0.02 0.06 0.07 0.06 0.04 0.09 0.09 0.11 0.13 0.14 0.15
0.46 0.36 0.24 0.20 0.04 0.05 0.00 0.04 0.07 0.07 0.10 0.02 0.00 0.00 0.00 0.00 0.00 0.00 0.00 0.00 0.00 0.00 0.00 0.00 0.00 0.00 0.00 0.00 0.00 0.00 0.00 0.00 0.00 0.00 0.02 0.03 0.04 0.06 0.08 0.12 0.14 0.11 0.10 0.08
0.35 0.47 0.34 0.29 0.04 0.03 0.00 0.02 0.06 0.02 0.00 0.00 0.00 0.00 0.00 0.00 0.00 0.00 0.00 0.00 0.00 0.00 0.00 0.00 0.00 0.00 0.00 0.00 0.00 0.00 0.00 0.00 0.00 0.01 0.02 0.04 0.05 0.08 0.11 0.14 0.11 0.10 0.10 0.11
0.10 0.12 0.17 0.19 0.05 0.04 0.09 0.11 0.04 0.15 0.10 0.12 0.02 0.00 0.00 0.00 0.00 0.00 0.00 0.00 0.00 0.00 0.00 0.00 0.00 0.00 0.00 0.00 0.00 0.00 0.00 0.00 0.01 0.03 0.07 0.06 0.05 0.08 0.08 0.10 0.10 0.11 0.10 0.12
0.00 0.04 0.09 0.14 0.11 0.05 0.01 0.03 0.10 0.24 0.15 0.06 0.00 0.00 0.00 0.00 0.00 0.00 0.00 0.00 0.00 0.00 0.00 0.00 0.00 0.00 0.00 0.00 0.00 0.00 0.00 0.02 0.03 0.06 0.10 0.03 0.05 0.07 0.07 0.07 0.05 0.06 0.09 0.10
0.00 0.02 0.06 0.14 0.17 0.06 0.02 0.08 0.11 0.16 0.14 0.08 0.03 0.00 0.00 0.00 0.00 0.00 0.00 0.00 0.00 0.00 0.00 0.00 0.00 0.00 0.00 0.00 0.00 0.00 0.01 0.04 0.06 0.05 0.03 0.02 0.04 0.06 0.07 0.07 0.05 0.05 0.07 0.07
0.00 0.04 0.03 0.05 0.01 0.00 0.01 0.00 0.03 0.21 0.08 0.13 0.06 0.03 0.00 0.00 0.00 0.00 0.00 0.00 0.00 0.00 0.00 0.00 0.00 0.00 0.00 0.00 0.00 0.00 0.05 0.07 0.03 0.02 0.02 0.02 0.03 0.04 0.05 0.05 0.07 0.07 0.07 0.05
0.00 0.04 0.03 0.03 0.05 0.04 0.05 0.02 0.10 0.21 0.39 0.24 0.12 0.03 0.00 0.00 0.00 0.00 0.00 0.00 0.00 0.00 0.00 0.02 0.00 0.00 0.01 0.02 0.07 0.12 0.10 0.03 0.04 0.04 0.03 0.03 0.04 0.05 0.06 0.06 0.06 0.06 0.06 0.06
0.01 0.03 0.02 0.03 0.06 0.19 0.18 0.03 0.10 0.41 0.53 0.09 0.04 0.00 0.00 0.00 0.00 0.01 0.01 0.01 0.01 0.00 0.00 0.00 0.01 0.00 0.06 0.15 0.25 0.15 0.12 0.10 0.10 0.09 0.07 0.08 0.07 0.08 0.07 0.07 0.06 0.05 0.05 0.05
0.04 0.05 0.02 0.02 0.06 0.22 0.20 0.08 0.07 0.31 0.16 0.21 0.06 0.00 0.00 0.00 0.00 0.01 0.01 0.00 0.00 0.01 0.00 0.00 0.01 0.01 0.05 0.19 0.18 0.17 0.20 0.19 0.16 0.15 0.12 0.07 0.06 0.08 0.07 0.06 0.07 0.05 0.04 0.04
0.05 0.09 0.06 0.06 0.05 0.10 0.16 0.04 0.06 0.05 0.02 0.02 0.00 0.00 0.01 0.00 0.01 0.06 0.03 0.01 0.01 0.00 0.00 0.00 0.00 0.00 0.02 0.08 0.15 0.15 0.19 0.17 0.10 0.10 0.09 0.07 0.05 0.06 0.08 0.09 0.09 0.09 0.09 0.10
0.06 0.08 0.15 0.07 0.04 0.11 0.13 0.04 0.02 0.01 0.00 0.01 0.01 0.01 0.01 0.07 0.18 0.16 0.03 0.01 0.00 0.00 0.00 0.00 0.00 0.00 0.02 0.11 0.19 0.61 0.74 0.37 0.09 0.21 0.16 0.12 0.08 0.09 0.12 0.14 0.16 0.14 0.12 0.15
0.02 0.06 0.19 0.09 0.09 0.24 0.13 0.02 0.00 0.00 0.00 0.00 0.01 0.01 0.04 0.16 0.27 0.07 0.01 0.01 0.00 0.00 0.00 0.00 0.00 0.00 0.02 0.13 0.53 0.65 0.86 0.35 0.16 0.29 0.47 0.52 0.47 0.39 0.39 0.41 0.40 0.32 0.30 0.29
0.01 0.06 0.18 0.16 0.17 0.09 0.01 0.00 0.00 0.00 0.00 0.00 0.03 0.01 0.02 0.07 0.07 0.03 0.01 0.01 0.01 0.01 0.01 0.01 0.00 0.00 0.01 0.08 0.30 0.32 0.47 0.53 0.56 0.85 0.84 0.80 0.66 0.62 0.87 1.01 0.86 0.75 0.73 0.68
0.02 0.03 0.16 0.10 0.09 0.01 0.01 0.00 0.00 0.02 0.01 0.00 0.04 0.03 0.01 0.02 0.03 0.04 0.00 0.01 0.01 0.01 0.00 0.00 0.01 0.02 0.03 0.06 0.22 0.56 0.97 0.79 0.72 0.81 0.97 0.89 0.78 0.64 0.75 0.70 0.76 0.71 0.63 0.68
0.06 0.09 0.13 0.11 0.13 0.00 0.00 0.00 0.00 0.00 0.01 0.00 0.02 0.05 0.01 0.01 0.00 0.03 0.09 0.07 0.04 0.02 0.03 0.04 0.05 0.14 0.19 0.29 0.61 0.84 0.99 0.90 0.89 0.92 0.79 0.66 0.55 0.71 0.67 0.69 0.53 0.61 0.53 0.41
0.01 0.03 0.05 0.06 0.06 0.00 0.00 0.00 0.00 0.00 0.00 0.00 0.00 0.04 0.04 0.00 0.00 0.00 0.02 0.08 0.10 0.14 0.19 0.07 0.22 0.66 0.79 0.59 0.55 0.45 0.50 0.47 0.26 0.37 0.34 0.37 0.26 0.32 0.42 0.27 0.25 0.23 0.19 0.13
0.00 0.00 0.00 0.00 0.00 0.00 0.00 0.00 0.00 0.00 0.00 0.00 0.01 0.01 0.01 0.02 0.05 0.04 0.01 0.01 0.02 0.04 0.07 0.01 0.07 0.12 0.09 0.04 0.01 0.03 0.05 0.05 0.00 0.00 0.00 0.00 0.00 0.00 0.01 0.00 0.00 0.00 0.00 0.00
0.00 0.00 0.00 0.00 0.00 0.00 0.00 0.00 0.00 0.00 0.00 0.00 0.02 0.02 0.00 0.00 0.00 0.00 0.00 0.00 0.00 0.00 0.00 0.00 0.00 0.00 0.00 0.00 0.00 0.00 0.00 0.00 0.00 0.00 0.00 0.00 0.00 0.00 0.00 0.00 0.00 0.00 0.00 0.00
0.01 0.00 0.00 0.00 0.00 0.00 0.00 0.00 0.00 0.00 0.00 0.00 0.00 0.00 0.00 0.00 0.00 0.00 0.00 0.00 0.00 0.00 0.00 0.00 0.00 0.00 0.00 0.00 0.00 0.00 0.00 0.00 0.00 0.00 0.00 0.00 0.00 0.00 0.00 0.00 0.00 0.00 0.00 0.00
0.00 0.00 0.00 0.00 0.00 0.00 0.00 0.00 0.00 0.00 0.00 0.00 0.00 0.00 0.00 0.00 0.00 0.00 0.00 0.00 0.00 0.00 0.00 0.00 0.00 0.00 0.00 0.00 0.00 0.00 0.00 0.00 0.00 0.00 0.00 0.00 0.00 0.00 0.00 0.00 0.00 0.00 0.00 0.00

GFSCGP_prec_precacc_042.txt.gz
Total_Precipitation_Accumulation
0.82 0.45 0.15 0.01 0.00 0.00 0.00 0.00 0.00 0.00 0.00 0.00 0.00 0.00 0.00 0.00 0.00 0.00 0.00 0.00 0.00 0.00 0.00 0.00 0.00 0.00 0.00 0.00 0.00 0.00 0.00 0.01 0.08 0.11 0.09 0.14 0.10 0.13 0.17 0.17 0.23 0.25 0.16 0.16
0.68 0.25 0.05 0.02 0.00 0.00 0.00 0.00 0.00 0.00 0.00 0.00 0.00 0.00 0.00 0.00 0.00 0.00 0.00 0.00 0.00 0.00 0.00 0.00 0.00 0.00 0.00 0.00 0.00 0.00 0.00 0.00 0.03 0.09 0.13 0.18 0.19 0.12 0.09 0.15 0.11 0.15 0.12 0.12
0.35 0.13 0.05 0.08 0.01 0.00 0.00 0.00 0.00 0.00 0.00 0.00 0.00 0.00 0.00 0.00 0.00 0.00 0.00 0.00 0.00 0.00 0.00 0.00 0.00 0.00 0.00 0.00 0.00 0.00 0.00 0.01 0.04 0.10 0.15 0.20 0.24 0.16 0.09 0.05 0.02 0.05 0.11 0.13
0.61 0.21 0.08 0.07 0.07 0.00 0.00 0.00 0.00 0.00 0.00 0.00 0.00 0.00 0.00 0.00 0.00 0.00 0.00 0.00 0.00 0.00 0.00 0.00 0.00 0.00 0.00 0.00 0.00 0.00 0.00 0.01 0.04 0.09 0.08 0.08 0.05 0.06 0.06 0.07 0.16 0.20 0.18 0.21
0.67 0.33 0.15 0.12 0.05 0.02 0.00 0.00 0.00 0.00 0.01 0.01 0.00 0.01 0.00 0.00 0.00 0.00 0.00 0.00 0.00 0.00 0.00 0.00 0.00 0.00 0.00 0.00 0.00 0.00 0.00 0.00 0.01 0.09 0.09 0.10 0.06 0.06 0.07 0.13 0.19 0.18 0.18 0.21
0.33 0.30 0.28 0.21 0.04 0.03 0.00 0.00 0.00 0.00 0.02 0.04 0.00 0.00 0.00 0.00 0.00 0.00 0.00 0.00 0.00 0.00 0.00 0.00 0.00 0.00 0.00 0.00 0.00 0.00 0.00 0.00 0.01 0.02 0.06 0.07 0.06 0.04 0.09 0.09 0.11 0.13 0.14 0.15
0.49 0.37 0.24 0.20 0.04 0.05 0.00 0.04 0.07 0.07 0.10 0.02 0.00 0.00 0.00 0.00 0.00 0.00 0.00 0.00 0.00 0.00 0.00 0.00 0.00 0.00 0.00 0.00 0.00 0.00 0.00 0.00 0.00 0.00 0.02 0.03 0.04 0.06 0.08 0.12 0.14 0.11 0.10 0.08
0.36 0.49 0.34 0.30 0.04 0.03 0.00 0.02 0.06 0.02 0.00 0.00 0.00 0.00 0.00 0.00 0.00 0.00 0.00 0.00 0.00 0.00 0.00 0.00 0.00 0.00 0.00 0.00 0.00 0.00 0.00 0.00 0.00 0.01 0.02 0.04 0.05 0.08 0.11 0.14 0.11 0.10 0.10 0.11
0.11 0.13 0.17 0.19 0.05 0.04 0.09 0.11 0.04 0.15 0.10 0.12 0.02 0.00 0.00 0.00 0.00 0.00 0.00 0.00 0.00 0.00 0.00 0.00 0.00 0.00 0.00 0.00 0.00 0.00 0.00 0.00 0.01 0.03 0.07 0.06 0.05 0.08 0.08 0.10 0.10 0.11 0.10 0.12
0.00 0.04 0.10 0.14 0.11 0.05 0.01 0.03 0.11 0.24 0.15 0.06 0.00 0.00 0.00 0.00 0.00 0.00 0.00 0.00 0.00 0.00 0.00 0.00 0.00 0.00 0.00 0.00 0.00 0.00 0.00 0.02 0.03 0.06 0.10 0.03 0.05 0.07 0.07 0.07 0.05 0.06 0.09 0.10
0.00 0.02 0.08 0.16 0.20 0.07 0.02 0.09 0.12 0.17 0.14 0.08 0.03 0.00 0.00 0.00 0.00 0.00 0.00 0.00 0.00 0.00 0.00 0.00 0.00 0.00 0.00 0.00 0.00 0.00 0.01 0.04 0.06 0.05 0.03 0.02 0.04 0.06 0.07 0.07 0.05 0.05 0.07 0.07
0.00 0.04 0.05 0.07 0.02 0.00 0.01 0.00 0.04 0.22 0.08 0.13 0.06 0.03 0.00 0.00 0.00 0.00 0.00 0.00 0.00 0.00 0.00 0.00 0.00 0.00 0.00 0.00 0.00 0.00 0.05 0.07 0.03 0.02 0.02 0.02 0.03 0.04 0.05 0.05 0.07 0.07 0.07 0.05
0.00 0.04 0.05 0.06 0.07 0.04 0.05 0.02 0.10 0.21 0.39 0.24 0.12 0.03 0.00 0.00 0.00 0.00 0.00 0.00 0.00 0.00 0.00 0.02 0.00 0.00 0.01 0.02 0.07 0.12 0.10 0.03 0.04 0.04 0.03 0.03 0.04 0.05 0.06 0.06 0.06 0.06 0.06 0.06
0.01 0.03 0.02 0.04 0.07 0.19 0.18 0.03 0.10 0.42 0.54 0.09 0.04 0.00 0.00 0.00 0.00 0.01 0.01 0.01 0.01 0.00 0.00 0.00 0.01 0.00 0.06 0.15 0.25 0.15 0.12 0.10 0.10 0.09 0.07 0.08 0.07 0.08 0.07 0.07 0.06 0.05 0.05 0.05
0.04 0.05 0.02 0.02 0.06 0.22 0.20 0.08 0.07 0.32 0.16 0.23 0.06 0.00 0.00 0.00 0.00 0.01 0.01 0.00 0.00 0.01 0.00 0.00 0.01 0.01 0.05 0.19 0.18 0.17 0.20 0.19 0.16 0.15 0.12 0.07 0.06 0.08 0.07 0.06 0.07 0.05 0.04 0.04
0.05 0.09 0.06 0.06 0.05 0.10 0.16 0.04 0.06 0.05 0.02 0.02 0.00 0.00 0.01 0.00 0.01 0.06 0.03 0.01 0.01 0.00 0.00 0.00 0.00 0.00 0.02 0.08 0.15 0.15 0.19 0.17 0.10 0.10 0.09 0.07 0.05 0.06 0.08 0.09 0.09 0.09 0.09 0.10
0.06 0.08 0.15 0.07 0.04 0.11 0.13 0.04 0.02 0.01 0.00 0.01 0.01 0.01 0.01 0.07 0.18 0.16 0.03 0.01 0.00 0.00 0.00 0.00 0.00 0.00 0.02 0.11 0.19 0.61 0.74 0.37 0.09 0.21 0.16 0.12 0.08 0.09 0.12 0.14 0.16 0.14 0.12 0.15
0.02 0.06 0.19 0.09 0.09 0.24 0.13 0.02 0.00 0.00 0.00 0.00 0.01 0.01 0.04 0.16 0.27 0.07 0.01 0.01 0.00 0.00 0.00 0.00 0.00 0.00 0.02 0.13 0.53 0.65 0.86 0.35 0.16 0.29 0.47 0.52 0.47 0.39 0.39 0.41 0.40 0.32 0.30 0.29
0.01 0.06 0.18 0.16 0.17 0.09 0.01 0.00 0.00 0.00 0.00 0.00 0.03 0.01 0.02 0.07 0.07 0.03 0.01 0.01 0.01 0.01 0.01 0.01 0.00 0.00 0.01 0.08 0.30 0.32 0.47 0.53 0.56 0.85 0.84 0.80 0.66 0.62 0.87 1.01 0.86 0.75 0.73 0.68
0.02 0.03 0.16 0.10 0.09 0.01 0.01 0.00 0.00 0.02 0.01 0.00 0.04 0.03 0.01 0.02 0.03 0.04 0.00 0.01 0.01 0.01 0.00 0.00 0.01 0.02 0.03 0.06 0.22 0.56 0.97 0.79 0.72 0.81 0.97 0.89 0.78 0.64 0.75 0.70 0.76 0.71 0.63 0.68
0.07 0.09 0.13 0.11 0.13 0.00 0.00 0.00 0.00 0.00 0.01 0.00 0.02 0.05 0.01 0.01 0.00 0.03 0.09 0.07 0.04 0.02 0.03 0.04 0.05 0.14 0.19 0.29 0.61 0.84 0.99 0.90 0.89 0.92 0.79 0.66 0.55 0.71 0.67 0.69 0.53 0.61 0.53 0.41
0.01 0.03 0.05 0.06 0.06 0.00 0.00 0.00 0.00 0.00 0.00 0.00 0.00 0.04 0.04 0.00 0.00 0.00 0.02 0.08 0.10 0.14 0.19 0.07 0.22 0.66 0.79 0.59 0.55 0.45 0.50 0.47 0.26 0.37 0.34 0.37 0.26 0.32 0.42 0.27 0.25 0.23 0.19 0.13
0.00 0.00 0.00 0.00 0.00 0.00 0.00 0.00 0.00 0.00 0.00 0.00 0.01 0.01 0.01 0.02 0.05 0.04 0.01 0.01 0.02 0.04 0.07 0.01 0.07 0.12 0.09 0.04 0.01 0.03 0.05 0.05 0.00 0.00 0.00 0.00 0.00 0.00 0.01 0.00 0.00 0.00 0.00 0.00
0.00 0.00 0.00 0.00 0.00 0.00 0.00 0.00 0.00 0.00 0.00 0.00 0.02 0.02 0.00 0.00 0.00 0.00 0.00 0.00 0.00 0.00 0.00 0.00 0.00 0.00 0.00 0.00 0.00 0.00 0.00 0.00 0.00 0.00 0.00 0.00 0.00 0.00 0.00 0.00 0.00 0.00 0.00 0.00
0.01 0.00 0.00 0.00 0.00 0.00 0.00 0.00 0.00 0.00 0.00 0.00 0.00 0.00 0.00 0.00 0.00 0.00 0.00 0.00 0.00 0.00 0.00 0.00 0.00 0.00 0.00 0.00 0.00 0.00 0.00 0.00 0.00 0.00 0.00 0.00 0.00 0.00 0.00 0.00 0.00 0.00 0.00 0.00
0.00 0.00 0.00 0.00 0.00 0.00 0.00 0.00 0.00 0.00 0.00 0.00 0.00 0.00 0.00 0.00 0.00 0.00 0.00 0.00 0.00 0.00 0.00 0.00 0.00 0.00 0.00 0.00 0.00 0.00 0.00 0.00 0.00 0.00 0.00 0.00 0.00 0.00 0.00 0.00 0.00 0.00 0.00 0.00

GFSCGP_prec_precacc_045.txt.gz
Total_Precipitation_Accumulation
0.99 0.46 0.15 0.01 0.00 0.00 0.00 0.00 0.00 0.00 0.00 0.00 0.00 0.00 0.00 0.01 0.00 0.00 0.00 0.00 0.00 0.00 0.00 0.00 0.00 0.00 0.00 0.00 0.00 0.00 0.00 0.01 0.08 0.11 0.09 0.14 0.10 0.13 0.17 0.17 0.25 0.28 0.20 0.19
0.98 0.27 0.05 0.02 0.00 0.00 0.00 0.00 0.00 0.00 0.00 0.00 0.00 0.00 0.00 0.00 0.00 0.00 0.00 0.00 0.00 0.00 0.00 0.00 0.00 0.00 0.00 0.00 0.00 0.00 0.00 0.00 0.03 0.09 0.13 0.18 0.19 0.12 0.09 0.15 0.11 0.15 0.13 0.14
0.60 0.15 0.05 0.08 0.01 0.00 0.00 0.00 0.00 0.00 0.00 0.00 0.00 0.00 0.00 0.00 0.00 0.00 0.00 0.00 0.00 0.00 0.00 0.00 0.00 0.00 0.00 0.00 0.00 0.00 0.00 0.01 0.04 0.10 0.15 0.20 0.24 0.16 0.09 0.05 0.02 0.05 0.12 0.14
0.84 0.22 0.08 0.07 0.08 0.00 0.00 0.00 0.00 0.00 0.00 0.00 0.00 0.00 0.00 0.00 0.00 0.00 0.00 0.00 0.00 0.00 0.00 0.00 0.00 0.00 0.00 0.00 0.00 0.00 0.00 0.01 0.04 0.09 0.08 0.08 0.05 0.06 0.06 0.07 0.16 0.20 0.18 0.21
0.76 0.33 0.15 0.12 0.05 0.02 0.00 0.00 0.00 0.00 0.01 0.01 0.00 0.01 0.00 0.00 0.00 0.00 0.00 0.00 0.00 0.00 0.00 0.00 0.00 0.00 0.00 0.00 0.00 0.00 0.00 0.00 0.01 0.09 0.09 0.10 0.06 0.06 0.07 0.13 0.19 0.18 0.18 0.21
0.37 0.31 0.28 0.21 0.04 0.03 0.00 0.00 0.00 0.00 0.02 0.04 0.00 0.00 0.00 0.00 0.00 0.00 0.00 0.00 0.00 0.00 0.00 0.00 0.00 0.00 0.00 0.00 0.00 0.00 0.00 0.00 0.01 0.02 0.06 0.07 0.06 0.04 0.09 0.09 0.11 0.13 0.14 0.15
0.57 0.40 0.24 0.20 0.04 0.05 0.00 0.04 0.08 0.08 0.10 0.02 0.00 0.00 0.00 0.00 0.00 0.00 0.00 0.00 0.00 0.00 0.00 0.00 0.00 0.00 0.00 0.00 0.00 0.00 0.00 0.00 0.00 0.00 0.02 0.03 0.04 0.06 0.08 0.12 0.14 0.11 0.10 0.08
0.42 0.56 0.34 0.30 0.04 0.03 0.00 0.02 0.06 0.02 0.00 0.00 0.00 0.00 0.00 0.00 0.00 0.00 0.00 0.00 0.00 0.00 0.00 0.00 0.00 0.00 0.00 0.00 0.00 0.00 0.00 0.00 0.00 0.01 0.02 0.04 0.05 0.08 0.11 0.14 0.11 0.10 0.10 0.11
0.11 0.14 0.18 0.19 0.05 0.04 0.09 0.11 0.04 0.15 0.10 0.12 0.02 0.00 0.00 0.00 0.00 0.00 0.00 0.00 0.00 0.00 0.00 0.00 0.00 0.00 0.00 0.00 0.00 0.00 0.00 0.00 0.01 0.03 0.07 0.06 0.05 0.08 0.08 0.10 0.10 0.11 0.10 0.12
0.00 0.04 0.11 0.14 0.11 0.05 0.01 0.03 0.11 0.24 0.15 0.06 0.00 0.00 0.00 0.00 0.00 0.00 0.00 0.00 0.00 0.00 0.00 0.00 0.00 0.00 0.00 0.00 0.00 0.00 0.00 0.02 0.03 0.06 0.10 0.03 0.05 0.07 0.07 0.07 0.05 0.06 0.09 0.10
0.00 0.02 0.08 0.17 0.20 0.07 0.02 0.09 0.12 0.17 0.14 0.08 0.03 0.00 0.00 0.00 0.00 0.00 0.00 0.00 0.00 0.00 0.00 0.00 0.00 0.00 0.00 0.00 0.00 0.00 0.01 0.04 0.06 0.05 0.03 0.02 0.04 0.06 0.07 0.07 0.05 0.05 0.07 0.07
0.00 0.04 0.05 0.07 0.02 0.00 0.01 0.00 0.04 0.22 0.08 0.13 0.06 0.03 0.00 0.00 0.00 0.00 0.00 0.00 0.00 0.00 0.00 0.00 0.00 0.00 0.00 0.00 0.00 0.00 0.05 0.07 0.03 0.02 0.02 0.02 0.03 0.04 0.05 0.05 0.07 0.07 0.07 0.05
0.00 0.04 0.07 0.09 0.10 0.05 0.06 0.02 0.10 0.21 0.39 0.24 0.12 0.03 0.00 0.00 0.00 0.00 0.00 0.00 0.00 0.00 0.00 0.02 0.00 0.00 0.01 0.02 0.07 0.12 0.10 0.03 0.04 0.04 0.03 0.03 0.04 0.05 0.06 0.06 0.06 0.06 0.06 0.06
0.01 0.03 0.02 0.04 0.07 0.19 0.18 0.03 0.10 0.42 0.55 0.09 0.04 0.00 0.00 0.00 0.00 0.01 0.01 0.01 0.01 0.00 0.00 0.00 0.01 0.00 0.06 0.15 0.25 0.15 0.12 0.10 0.10 0.09 0.07 0.08 0.07 0.08 0.07 0.07 0.06 0.05 0.05 0.05
0.04 0.05 0.02 0.02 0.06 0.22 0.20 0.08 0.07 0.32 0.16 0.23 0.06 0.00 0.00 0.00 0.00 0.01 0.01 0.00 0.00 0.01 0.00 0.00 0.01 0.01 0.05 0.19 0.18 0.17 0.20 0.19 0.16 0.15 0.12 0.07 0.06 0.08 0.07 0.06 0.07 0.05 0.04 0.04
0.05 0.09 0.06 0.06 0.05 0.10 0.16 0.04 0.06 0.05 0.02 0.02 0.00 0.00 0.01 0.00 0.01 0.06 0.03 0.01 0.01 0.00 0.00 0.00 0.00 0.00 0.02 0.08 0.15 0.15 0.19 0.17 0.10 0.10 0.09 0.07 0.05 0.06 0.08 0.09 0.09 0.09 0.09 0.10
0.06 0.08 0.15 0.07 0.04 0.11 0.13 0.04 0.02 0.01 0.00 0.01 0.01 0.01 0.01 0.07 0.18 0.16 0.03 0.01 0.00 0.00 0.00 0.00 0.00 0.00 0.02 0.11 0.19 0.61 0.74 0.37 0.09 0.21 0.16 0.12 0.08 0.09 0.12 0.14 0.16 0.14 0.12 0.15
0.02 0.06 0.19 0.09 0.09 0.24 0.13 0.02 0.00 0.00 0.00 0.00 0.01 0.01 0.04 0.16 0.27 0.07 0.01 0.01 0.00 0.00 0.00 0.00 0.00 0.00 0.02 0.13 0.53 0.65 0.86 0.35 0.16 0.29 0.47 0.52 0.47 0.39 0.39 0.41 0.40 0.32 0.30 0.29
0.01 0.06 0.18 0.16 0.17 0.09 0.01 0.00 0.00 0.00 0.00 0.00 0.03 0.01 0.02 0.07 0.07 0.03 0.01 0.01 0.01 0.01 0.01 0.01 0.00 0.00 0.01 0.08 0.30 0.32 0.47 0.53 0.56 0.85 0.84 0.80 0.66 0.62 0.87 1.01 0.86 0.75 0.73 0.68
0.02 0.03 0.16 0.10 0.09 0.01 0.01 0.00 0.00 0.02 0.01 0.00 0.04 0.03 0.01 0.02 0.03 0.04 0.00 0.01 0.01 0.01 0.00 0.00 0.01 0.02 0.03 0.06 0.22 0.56 0.97 0.79 0.72 0.81 0.97 0.89 0.78 0.64 0.75 0.70 0.76 0.71 0.63 0.68
0.07 0.09 0.13 0.11 0.13 0.00 0.00 0.00 0.00 0.00 0.01 0.00 0.02 0.05 0.01 0.01 0.00 0.03 0.09 0.07 0.04 0.02 0.03 0.04 0.05 0.14 0.19 0.29 0.61 0.84 0.99 0.90 0.89 0.92 0.79 0.66 0.55 0.71 0.67 0.69 0.53 0.61 0.53 0.41
0.01 0.03 0.05 0.06 0.07 0.00 0.00 0.00 0.00 0.00 0.00 0.00 0.00 0.04 0.04 0.00 0.00 0.00 0.02 0.08 0.10 0.14 0.19 0.07 0.22 0.66 0.79 0.59 0.55 0.45 0.50 0.47 0.26 0.37 0.34 0.37 0.26 0.32 0.42 0.27 0.25 0.23 0.19 0.13
0.00 0.00 0.00 0.00 0.00 0.00 0.00 0.00 0.00 0.00 0.00 0.00 0.01 0.01 0.01 0.02 0.05 0.04 0.01 0.01 0.02 0.04 0.07 0.01 0.07 0.12 0.09 0.04 0.01 0.03 0.05 0.05 0.00 0.00 0.00 0.00 0.00 0.00 0.01 0.00 0.00 0.00 0.00 0.00
0.00 0.00 0.00 0.00 0.00 0.00 0.00 0.00 0.00 0.00 0.00 0.00 0.02 0.02 0.00 0.00 0.00 0.00 0.00 0.00 0.00 0.00 0.00 0.00 0.00 0.00 0.00 0.00 0.00 0.00 0.00 0.00 0.00 0.00 0.00 0.00 0.00 0.00 0.00 0.00 0.00 0.00 0.00 0.00
0.01 0.00 0.00 0.00 0.00 0.00 0.00 0.00 0.00 0.00 0.00 0.00 0.00 0.00 0.00 0.00 0.00 0.00 0.00 0.00 0.00 0.00 0.01 0.01 0.00 0.00 0.00 0.00 0.00 0.00 0.00 0.00 0.00 0.00 0.00 0.00 0.00 0.00 0.00 0.00 0.00 0.00 0.00 0.00
0.00 0.00 0.00 0.00 0.00 0.00 0.00 0.00 0.00 0.00 0.00 0.00 0.00 0.00 0.00 0.00 0.00 0.00 0.00 0.00 0.00 0.00 0.00 0.00 0.00 0.00 0.00 0.00 0.00 0.00 0.00 0.00 0.00 0.00 0.00 0.00 0.00 0.00 0.00 0.00 0.00 0.00 0.00 0.00

GFSCGP_prec_precacc_048.txt.gz
Total_Precipitation_Accumulation
1.39 0.71 0.16 0.01 0.00 0.00 0.00 0.00 0.00 0.00 0.00 0.00 0.00 0.00 0.00 0.01 0.02 0.02 0.00 0.00 0.00 0.00 0.00 0.00 0.00 0.00 0.00 0.00 0.00 0.00 0.00 0.01 0.08 0.11 0.09 0.14 0.10 0.13 0.17 0.17 0.25 0.28 0.20 0.19
1.23 0.36 0.05 0.02 0.00 0.00 0.00 0.00 0.00 0.00 0.00 0.00 0.00 0.00 0.00 0.00 0.00 0.00 0.00 0.00 0.00 0.00 0.00 0.00 0.00 0.00 0.00 0.00 0.00 0.00 0.00 0.00 0.03 0.09 0.13 0.18 0.19 0.12 0.09 0.15 0.11 0.15 0.13 0.14
0.70 0.16 0.05 0.09 0.02 0.00 0.00 0.00 0.00 0.00 0.00 0.00 0.00 0.00 0.00 0.00 0.00 0.00 0.00 0.00 0.00 0.00 0.00 0.00 0.00 0.00 0.00 0.00 0.00 0.00 0.00 0.01 0.04 0.10 0.15 0.20 0.24 0.16 0.09 0.05 0.02 0.05 0.12 0.14
0.97 0.24 0.08 0.08 0.10 0.00 0.00 0.00 0.00 0.00 0.00 0.00 0.00 0.00 0.00 0.00 0.00 0.00 0.00 0.00 0.00 0.00 0.00 0.00 0.00 0.00 0.00 0.00 0.00 0.00 0.00 0.01 0.04 0.09 0.08 0.08 0.05 0.06 0.06 0.07 0.16 0.20 0.18 0.21
0.89 0.37 0.15 0.12 0.06 0.02 0.00 0.00 0.00 0.00 0.01 0.01 0.00 0.01 0.00 0.00 0.00 0.00 0.00 0.00 0.00 0.00 0.00 0.00 0.00 0.00 0.00 0.00 0.00 0.00 0.00 0.00 0.01 0.09 0.09 0.10 0.06 0.06 0.07 0.13 0.19 0.18 0.18 0.21
0.43 0.32 0.29 0.21 0.04 0.03 0.00 0.00 0.00 0.00 0.02 0.04 0.00 0.00 0.00 0.00 0.00 0.00 0.00 0.00 0.00 0.00 0.00 0.00 0.00 0.00 0.00 0.00 0.00 0.00 0.00 0.00 0.01 0.02 0.06 0.07 0.06 0.04 0.09 0.09 0.11 0.13 0.14 0.15
0.71 0.43 0.24 0.20 0.04 0.05 0.00 0.04 0.08 0.08 0.10 0.02 0.00 0.00 0.00 0.00 0.00 0.00 0.00 0.00 0.00 0.00 0.00 0.00 0.00 0.00 0.00 0.00 0.00 0.00 0.00 0.00 0.00 0.00 0.02 0.03 0.04 0.06 0.08 0.12 0.14 0.11 0.10 0.08
0.52 0.61 0.35 0.30 0.04 0.03 0.00 0.02 0.06 0.02 0.01 0.00 0.00 0.00 0.00 0.00 0.00 0.00 0.00 0.00 0.00 0.00 0.00 0.00 0.00 0.00 0.00 0.00 0.00 0.00 0.00 0.00 0.00 0.01 0.02 0.04 0.05 0.08 0.11 0.14 0.11 0.10 0.10 0.11
0.15 0.17 0.19 0.19 0.05 0.04 0.09 0.11 0.04 0.15 0.10 0.12 0.02 0.00 0.00 0.00 0.00 0.00 0.00 0.00 0.00 0.00 0.00 0.00 0.00 0.00 0.00 0.00 0.00 0.00 0.00 0.00 0.01 0.03 0.07 0.06 0.05 0.08 0.08 0.10 0.10 0.11 0.10 0.12
0.00 0.06 0.11 0.14 0.11 0.05 0.01 0.03 0.11 0.24 0.15 0.06 0.00 0.00 0.00 0.00 0.00 0.00 0.00 0.00 0.00 0.00 0.00 0.00 0.00 0.00 0.00 0.00 0.00 0.00 0.00 0.02 0.03 0.06 0.10 0.03 0.05 0.07 0.07 0.07 0.05 0.06 0.09 0.10
0.00 0.02 0.08 0.17 0.20 0.07 0.02 0.09 0.12 0.17 0.14 0.08 0.03 0.00 0.00 0.00 0.00 0.00 0.00 0.00 0.00 0.00 0.00 0.00 0.00 0.00 0.00 0.00 0.00 0.00 0.01 0.04 0.06 0.05 0.03 0.02 0.04 0.06 0.07 0.07 0.05 0.05 0.07 0.07
0.00 0.04 0.06 0.07 0.02 0.00 0.01 0.00 0.04 0.22 0.08 0.13 0.06 0.03 0.00 0.00 0.00 0.00 0.00 0.00 0.00 0.00 0.00 0.00 0.00 0.00 0.00 0.00 0.00 0.00 0.05 0.07 0.03 0.02 0.02 0.02 0.03 0.04 0.05 0.05 0.07 0.07 0.07 0.05
0.00 0.04 0.07 0.10 0.10 0.05 0.06 0.02 0.10 0.21 0.39 0.24 0.12 0.03 0.00 0.00 0.00 0.00 0.00 0.00 0.00 0.00 0.00 0.02 0.00 0.00 0.01 0.02 0.07 0.12 0.10 0.03 0.04 0.04 0.03 0.03 0.04 0.05 0.06 0.06 0.06 0.06 0.06 0.06
0.01 0.03 0.02 0.04 0.07 0.19 0.18 0.03 0.10 0.42 0.55 0.09 0.04 0.00 0.00 0.00 0.00 0.01 0.01 0.01 0.01 0.00 0.00 0.00 0.01 0.00 0.06 0.15 0.25 0.15 0.12 0.10 0.10 0.09 0.07 0.08 0.07 0.08 0.07 0.07 0.06 0.05 0.05 0.05
0.04 0.05 0.02 0.02 0.06 0.22 0.20 0.08 0.07 0.32 0.17 0.23 0.06 0.00 0.00 0.00 0.00 0.01 0.01 0.00 0.00 0.01 0.00 0.00 0.01 0.01 0.05 0.19 0.18 0.17 0.20 0.19 0.16 0.15 0.12 0.07 0.06 0.08 0.07 0.06 0.07 0.05 0.05 0.04
0.05 0.09 0.06 0.06 0.05 0.10 0.16 0.04 0.06 0.05 0.02 0.02 0.00 0.00 0.01 0.00 0.01 0.06 0.03 0.01 0.01 0.00 0.00 0.00 0.00 0.00 0.02 0.08 0.15 0.15 0.19 0.17 0.10 0.10 0.09 0.07 0.05 0.06 0.08 0.09 0.09 0.09 0.09 0.10
0.06 0.08 0.15 0.07 0.04 0.11 0.13 0.04 0.02 0.01 0.00 0.01 0.01 0.01 0.01 0.07 0.18 0.16 0.03 0.01 0.00 0.00 0.00 0.00 0.00 0.00 0.02 0.11 0.19 0.61 0.74 0.37 0.09 0.21 0.16 0.12 0.08 0.09 0.12 0.14 0.16 0.14 0.12 0.15
0.02 0.06 0.19 0.09 0.09 0.24 0.13 0.02 0.00 0.00 0.00 0.00 0.01 0.01 0.04 0.16 0.27 0.07 0.01 0.01 0.00 0.00 0.00 0.00 0.00 0.00 0.02 0.13 0.53 0.65 0.86 0.35 0.16 0.29 0.47 0.52 0.47 0.39 0.39 0.41 0.40 0.32 0.30 0.29
0.01 0.06 0.18 0.16 0.17 0.09 0.01 0.00 0.00 0.00 0.00 0.00 0.03 0.01 0.02 0.07 0.07 0.03 0.01 0.01 0.01 0.01 0.01 0.01 0.00 0.00 0.01 0.08 0.30 0.32 0.47 0.53 0.56 0.85 0.84 0.80 0.66 0.62 0.87 1.01 0.86 0.75 0.73 0.68
0.02 0.03 0.16 0.10 0.09 0.01 0.01 0.00 0.00 0.02 0.01 0.00 0.04 0.03 0.01 0.02 0.03 0.04 0.00 0.01 0.01 0.01 0.00 0.00 0.01 0.02 0.03 0.06 0.22 0.56 0.97 0.79 0.72 0.81 0.97 0.89 0.78 0.64 0.75 0.70 0.76 0.71 0.63 0.68
0.07 0.09 0.13 0.11 0.13 0.00 0.00 0.00 0.00 0.00 0.01 0.00 0.02 0.05 0.01 0.01 0.00 0.03 0.09 0.07 0.04 0.02 0.03 0.04 0.05 0.14 0.19 0.29 0.61 0.84 0.99 0.90 0.89 0.92 0.79 0.66 0.55 0.71 0.67 0.69 0.53 0.61 0.53 0.41
0.01 0.03 0.05 0.06 0.07 0.00 0.00 0.00 0.00 0.00 0.00 0.00 0.00 0.04 0.04 0.00 0.00 0.00 0.02 0.08 0.10 0.14 0.19 0.07 0.22 0.66 0.79 0.59 0.55 0.45 0.50 0.47 0.26 0.37 0.34 0.37 0.26 0.32 0.42 0.27 0.25 0.23 0.19 0.13
0.00 0.00 0.00 0.00 0.00 0.00 0.00 0.00 0.00 0.00 0.00 0.00 0.01 0.01 0.01 0.02 0.05 0.04 0.01 0.01 0.02 0.04 0.07 0.01 0.07 0.12 0.09 0.04 0.01 0.03 0.05 0.05 0.00 0.00 0.00 0.00 0.00 0.00 0.01 0.00 0.00 0.00 0.00 0.00
0.00 0.00 0.00 0.00 0.00 0.00 0.00 0.00 0.00 0.00 0.00 0.00 0.02 0.02 0.00 0.00 0.00 0.00 0.00 0.00 0.00 0.00 0.00 0.00 0.00 0.00 0.00 0.00 0.00 0.00 0.00 0.00 0.00 0.00 0.00 0.00 0.00 0.00 0.00 0.00 0.00 0.00 0.00 0.00
0.01 0.00 0.00 0.00 0.00 0.00 0.00 0.00 0.00 0.00 0.00 0.00 0.00 0.00 0.00 0.00 0.00 0.00 0.00 0.00 0.00 0.01 0.04 0.04 0.03 0.03 0.01 0.00 0.00 0.00 0.00 0.00 0.00 0.00 0.00 0.00 0.00 0.00 0.00 0.00 0.00 0.00 0.00 0.00
0.00 0.00 0.00 0.00 0.00 0.00 0.00 0.00 0.00 0.00 0.00 0.00 0.00 0.00 0.00 0.00 0.00 0.00 0.00 0.00 0.00 0.00 0.00 0.00 0.00 0.02 0.02 0.00 0.00 0.00 0.00 0.00 0.00 0.00 0.00 0.00 0.00 0.00 0.00 0.00 0.00 0.00 0.00 0.00

GFSCGP_prec_precacc_051.txt.gz
Total_Precipitation_Accumulation
1.77 0.80 0.16 0.02 0.00 0.00 0.00 0.00 0.00 0.00 0.00 0.00 0.00 0.00 0.00 0.01 0.03 0.03 0.00 0.00 0.00 0.00 0.00 0.00 0.00 0.00 0.00 0.00 0.00 0.00 0.00 0.01 0.08 0.11 0.09 0.14 0.10 0.13 0.17 0.17 0.25 0.28 0.20 0.19
1.48 0.47 0.06 0.02 0.00 0.00 0.00 0.00 0.00 0.00 0.00 0.01 0.00 0.00 0.00 0.00 0.00 0.01 0.00 0.00 0.00 0.00 0.00 0.00 0.00 0.00 0.00 0.00 0.00 0.00 0.00 0.00 0.03 0.09 0.13 0.18 0.19 0.12 0.09 0.15 0.11 0.15 0.13 0.14
0.78 0.18 0.06 0.10 0.02 0.00 0.00 0.00 0.00 0.00 0.00 0.00 0.00 0.00 0.00 0.00 0.00 0.00 0.00 0.00 0.00 0.00 0.00 0.00 0.00 0.00 0.00 0.00 0.00 0.00 0.00 0.01 0.04 0.10 0.15 0.20 0.24 0.16 0.09 0.05 0.02 0.05 0.12 0.14
1.09 0.24 0.10 0.10 0.10 0.00 0.00 0.00 0.00 0.00 0.00 0.00 0.00 0.00 0.00 0.00 0.00 0.00 0.00 0.00 0.00 0.00 0.00 0.00 0.00 0.00 0.00 0.00 0.00 0.00 0.00 0.01 0.04 0.09 0.08 0.08 0.05 0.06 0.06 0.07 0.16 0.20 0.18 0.21
1.04 0.38 0.16 0.13 0.07 0.02 0.00 0.00 0.00 0.00 0.01 0.01 0.00 0.01 0.00 0.00 0.00 0.00 0.00 0.00 0.00 0.00 0.00 0.00 0.00 0.00 0.00 0.00 0.00 0.00 0.00 0.00 0.01 0.09 0.09 0.10 0.06 0.06 0.07 0.13 0.19 0.18 0.18 0.21
0.54 0.33 0.29 0.21 0.05 0.03 0.00 0.00 0.00 0.00 0.02 0.04 0.00 0.00 0.00 0.00 0.00 0.00 0.00 0.00 0.00 0.00 0.00 0.00 0.00 0.00 0.00 0.00 0.00 0.00 0.00 0.00 0.01 0.02 0.06 0.07 0.06 0.04 0.09 0.09 0.11 0.13 0.14 0.15
0.82 0.46 0.24 0.20 0.05 0.05 0.00 0.04 0.08 0.08 0.10 0.02 0.00 0.00 0.00 0.00 0.00 0.00 0.00 0.00 0.00 0.00 0.00 0.00 0.00 0.00 0.00 0.00 0.00 0.00 0.00 0.00 0.00 0.00 0.02 0.03 0.04 0.06 0.08 0.12 0.14 0.11 0.10 0.08
0.67 0.70 0.35 0.30 0.04 0.03 0.00 0.02 0.06 0.02 0.01 0.00 0.00 0.00 0.00 0.00 0.00 0.00 0.00 0.00 0.00 0.00 0.00 0.00 0.00 0.00 0.00 0.00 0.00 0.00 0.00 0.00 0.00 0.01 0.02 0.04 0.05 0.08 0.11 0.14 0.11 0.10 0.10 0.11
0.17 0.19 0.19 0.19 0.05 0.04 0.09 0.11 0.04 0.15 0.10 0.12 0.02 0.00 0.00 0.00 0.00 0.00 0.00 0.00 0.00 0.00 0.00 0.00 0.00 0.00 0.00 0.00 0.00 0.00 0.00 0.00 0.01 0.03 0.07 0.06 0.05 0.08 0.08 0.10 0.10 0.11 0.10 0.12
0.00 0.08 0.12 0.14 0.11 0.05 0.01 0.03 0.11 0.24 0.15 0.06 0.00 0.00 0.00 0.00 0.00 0.00 0.00 0.00 0.00 0.00 0.00 0.00 0.00 0.00 0.00 0.00 0.00 0.00 0.00 0.02 0.03 0.06 0.10 0.03 0.05 0.07 0.07 0.07 0.05 0.06 0.09 0.10
0.00 0.03 0.10 0.19 0.20 0.07 0.02 0.09 0.12 0.17 0.14 0.08 0.03 0.00 0.00 0.00 0.00 0.00 0.00 0.00 0.00 0.00 0.00 0.00 0.00 0.00 0.00 0.00 0.00 0.00 0.01 0.04 0.06 0.05 0.03 0.02 0.04 0.06 0.07 0.07 0.05 0.05 0.07 0.07
0.00 0.04 0.06 0.09 0.02 0.00 0.01 0.00 0.04 0.22 0.08 0.13 0.06 0.03 0.00 0.00 0.00 0.00 0.00 0.00 0.00 0.00 0.00 0.00 0.00 0.00 0.00 0.00 0.00 0.00 0.05 0.07 0.03 0.02 0.02 0.02 0.03 0.04 0.05 0.05 0.07 0.07 0.07 0.05
0.00 0.04 0.08 0.11 0.11 0.05 0.06 0.02 0.10 0.21 0.39 0.24 0.12 0.03 0.00 0.00 0.00 0.00 0.00 0.00 0.00 0.00 0.00 0.02 0.00 0.00 0.01 0.02 0.07 0.12 0.10 0.03 0.04 0.04 0.03 0.03 0.04 0.05 0.06 0.06 0.06 0.06 0.06 0.06
0.01 0.03 0.02 0.04 0.08 0.19 0.18 0.03 0.10 0.42 0.55 0.09 0.04 0.00 0.00 0.00 0.00 0.01 0.01 0.01 0.01 0.00 0.00 0.00 0.01 0.00 0.06 0.15 0.25 0.15 0.12 0.10 0.10 0.09 0.07 0.08 0.07 0.08 0.07 0.07 0.06 0.05 0.05 0.05
0.04 0.05 0.02 0.02 0.06 0.22 0.20 0.08 0.07 0.32 0.17 0.23 0.06 0.00 0.00 0.00 0.00 0.01 0.01 0.00 0.00 0.01 0.00 0.00 0.01 0.01 0.05 0.19 0.18 0.17 0.20 0.19 0.16 0.15 0.12 0.07 0.06 0.08 0.07 0.06 0.07 0.05 0.05 0.04
0.05 0.09 0.06 0.06 0.05 0.10 0.16 0.04 0.06 0.05 0.02 0.02 0.00 0.00 0.01 0.00 0.01 0.06 0.03 0.01 0.01 0.00 0.00 0.00 0.00 0.00 0.02 0.08 0.15 0.15 0.19 0.17 0.10 0.10 0.09 0.07 0.05 0.06 0.08 0.09 0.09 0.09 0.09 0.10
0.06 0.08 0.15 0.07 0.04 0.11 0.13 0.04 0.02 0.01 0.00 0.01 0.01 0.01 0.01 0.07 0.18 0.16 0.03 0.01 0.00 0.00 0.00 0.00 0.00 0.00 0.02 0.11 0.19 0.61 0.74 0.37 0.09 0.21 0.16 0.12 0.08 0.09 0.12 0.14 0.16 0.14 0.12 0.15
0.02 0.06 0.19 0.09 0.09 0.24 0.13 0.02 0.00 0.00 0.00 0.00 0.01 0.01 0.04 0.16 0.27 0.07 0.01 0.01 0.00 0.00 0.00 0.00 0.00 0.00 0.02 0.13 0.53 0.65 0.86 0.35 0.16 0.29 0.47 0.52 0.47 0.39 0.39 0.41 0.40 0.32 0.30 0.29
0.01 0.06 0.18 0.16 0.17 0.09 0.01 0.00 0.00 0.00 0.00 0.00 0.03 0.01 0.02 0.07 0.07 0.03 0.01 0.01 0.01 0.01 0.01 0.01 0.00 0.00 0.01 0.08 0.30 0.32 0.47 0.53 0.56 0.85 0.84 0.80 0.66 0.62 0.87 1.01 0.86 0.75 0.73 0.68
0.02 0.03 0.16 0.10 0.09 0.01 0.01 0.00 0.00 0.02 0.01 0.00 0.04 0.03 0.01 0.02 0.03 0.04 0.00 0.01 0.01 0.01 0.00 0.00 0.01 0.02 0.03 0.06 0.22 0.56 0.97 0.79 0.72 0.81 0.97 0.89 0.78 0.64 0.75 0.70 0.76 0.71 0.63 0.68
0.07 0.09 0.14 0.12 0.14 0.00 0.00 0.00 0.00 0.00 0.01 0.00 0.02 0.05 0.01 0.01 0.00 0.03 0.09 0.07 0.04 0.02 0.03 0.04 0.05 0.14 0.19 0.29 0.61 0.84 0.99 0.90 0.89 0.92 0.79 0.66 0.55 0.71 0.67 0.69 0.53 0.61 0.53 0.41
0.01 0.03 0.05 0.06 0.07 0.00 0.00 0.00 0.00 0.00 0.00 0.00 0.00 0.04 0.04 0.00 0.00 0.00 0.02 0.08 0.10 0.14 0.19 0.07 0.22 0.66 0.79 0.59 0.55 0.45 0.50 0.47 0.26 0.37 0.34 0.37 0.26 0.32 0.42 0.27 0.25 0.23 0.19 0.13
0.00 0.00 0.00 0.00 0.00 0.00 0.00 0.00 0.00 0.00 0.00 0.00 0.01 0.01 0.01 0.02 0.05 0.04 0.01 0.01 0.02 0.04 0.07 0.01 0.07 0.12 0.09 0.04 0.01 0.03 0.05 0.05 0.00 0.00 0.00 0.00 0.00 0.00 0.01 0.00 0.00 0.00 0.00 0.00
0.00 0.00 0.00 0.00 0.00 0.00 0.00 0.00 0.00 0.00 0.00 0.00 0.02 0.02 0.00 0.00 0.00 0.00 0.00 0.00 0.00 0.00 0.00 0.00 0.00 0.00 0.00 0.00 0.00 0.00 0.00 0.00 0.00 0.00 0.00 0.00 0.00 0.00 0.00 0.00 0.00 0.00 0.00 0.00
0.01 0.00 0.00 0.00 0.00 0.00 0.00 0.00 0.00 0.00 0.00 0.00 0.00 0.00 0.00 0.00 0.00 0.00 0.00 0.00 0.00 0.01 0.04 0.07 0.09 0.08 0.04 0.01 0.00 0.00 0.00 0.00 0.00 0.00 0.00 0.00 0.00 0.00 0.00 0.00 0.00 0.00 0.00 0.00
0.00 0.00 0.00 0.00 0.00 0.00 0.00 0.00 0.00 0.00 0.00 0.00 0.00 0.00 0.00 0.00 0.00 0.00 0.00 0.00 0.00 0.00 0.00 0.01 0.03 0.06 0.07 0.05 0.02 0.00 0.00 0.00 0.00 0.00 0.00 0.00 0.00 0.00 0.00 0.00 0.00 0.00 0.00 0.00

GFSCGP_prec_precacc_054.txt.gz
Total_Precipitation_Accumulation
2.07 1.05 0.17 0.02 0.00 0.00 0.00 0.00 0.00 0.01 0.04 0.02 0.01 0.00 0.00 0.01 0.03 0.03 0.00 0.00 0.00 0.00 0.00 0.00 0.00 0.00 0.00 0.00 0.00 0.00 0.01 0.02 0.09 0.11 0.09 0.14 0.10 0.13 0.17 0.17 0.25 0.28 0.20 0.19
1.65 0.59 0.06 0.02 0.00 0.00 0.00 0.00 0.00 0.00 0.04 0.06 0.02 0.00 0.00 0.00 0.00 0.01 0.00 0.00 0.00 0.00 0.00 0.00 0.00 0.00 0.00 0.00 0.00 0.00 0.00 0.00 0.03 0.09 0.13 0.18 0.19 0.12 0.09 0.15 0.11 0.15 0.13 0.14
0.89 0.24 0.06 0.10 0.03 0.01 0.00 0.00 0.00 0.00 0.01 0.03 0.00 0.00 0.00 0.00 0.00 0.00 0.00 0.00 0.00 0.00 0.00 0.00 0.00 0.00 0.00 0.00 0.00 0.00 0.00 0.01 0.04 0.10 0.15 0.20 0.24 0.16 0.09 0.05 0.02 0.05 0.12 0.14
1.21 0.27 0.10 0.11 0.11 0.00 0.00 0.00 0.00 0.00 0.00 0.00 0.00 0.00 0.00 0.00 0.00 0.00 0.00 0.00 0.00 0.00 0.00 0.00 0.00 0.00 0.00 0.00 0.00 0.00 0.00 0.01 0.04 0.09 0.08 0.08 0.05 0.06 0.06 0.07 0.16 0.20 0.18 0.21
1.12 0.42 0.17 0.15 0.08 0.02 0.00 0.00 0.00 0.00 0.01 0.01 0.00 0.01 0.00 0.00 0.00 0.00 0.00 0.00 0.00 0.00 0.00 0.00 0.00 0.00 0.00 0.00 0.00 0.00 0.00 0.00 0.01 0.09 0.09 0.10 0.06 0.06 0.07 0.13 0.19 0.18 0.18 0.21
0.59 0.34 0.31 0.21 0.05 0.03 0.00 0.00 0.00 0.00 0.02 0.04 0.00 0.00 0.00 0.00 0.00 0.00 0.00 0.00 0.00 0.00 0.00 0.00 0.00 0.00 0.00 0.00 0.00 0.00 0.00 0.00 0.01 0.02 0.06 0.07 0.06 0.04 0.09 0.09 0.11 0.13 0.14 0.15
0.93 0.50 0.26 0.21 0.06 0.05 0.00 0.04 0.08 0.09 0.10 0.03 0.00 0.00 0.00 0.00 0.00 0.00 0.00 0.00 0.00 0.00 0.00 0.00 0.00 0.00 0.00 0.00 0.00 0.00 0.00 0.00 0.00 0.00 0.02 0.03 0.04 0.06 0.08 0.12 0.14 0.11 0.10 0.08
0.77 0.80 0.37 0.30 0.05 0.03 0.00 0.02 0.06 0.02 0.01 0.00 0.00 0.00 0.00 0.00 0.00 0.00 0.00 0.00 0.00 0.00 0.00 0.00 0.00 0.00 0.00 0.00 0.00 0.00 0.00 0.00 0.00 0.01 0.02 0.04 0.05 0.08 0.11 0.14 0.11 0.10 0.10 0.11
0.19 0.22 0.20 0.19 0.05 0.04 0.10 0.12 0.04 0.15 0.10 0.12 0.02 0.00 0.00 0.00 0.00 0.00 0.00 0.00 0.00 0.00 0.00 0.00 0.00 0.00 0.00 0.00 0.00 0.00 0.00 0.00 0.01 0.03 0.07 0.06 0.05 0.08 0.08 0.10 0.10 0.11 0.10 0.12
0.00 0.11 0.13 0.14 0.11 0.06 0.01 0.03 0.11 0.24 0.15 0.06 0.00 0.00 0.00 0.00 0.00 0.00 0.00 0.00 0.00 0.00 0.00 0.00 0.00 0.00 0.00 0.00 0.00 0.00 0.00 0.02 0.03 0.06 0.10 0.03 0.05 0.07 0.07 0.07 0.05 0.06 0.09 0.10
0.00 0.03 0.12 0.19 0.21 0.07 0.02 0.09 0.12 0.17 0.14 0.08 0.03 0.00 0.00 0.00 0.00 0.00 0.00 0.00 0.00 0.00 0.00 0.00 0.00 0.00 0.00 0.00 0.00 0.00 0.01 0.04 0.06 0.05 0.03 0.02 0.04 0.06 0.07 0.07 0.05 0.05 0.07 0.07
0.00 0.04 0.07 0.10 0.02 0.00 0.01 0.00 0.04 0.22 0.08 0.13 0.06 0.03 0.00 0.00 0.00 0.00 0.00 0.00 0.00 0.00 0.00 0.00 0.00 0.00 0.00 0.00 0.00 0.00 0.05 0.07 0.03 0.02 0.02 0.02 0.03 0.04 0.05 0.05 0.07 0.07 0.07 0.05
0.00 0.04 0.09 0.14 0.13 0.06 0.06 0.02 0.10 0.21 0.39 0.24 0.12 0.03 0.00 0.00 0.00 0.00 0.00 0.00 0.00 0.00 0.00 0.02 0.00 0.00 0.01 0.02 0.07 0.12 0.10 0.03 0.04 0.04 0.03 0.03 0.04 0.05 0.06 0.06 0.06 0.06 0.06 0.06
0.01 0.03 0.02 0.05 0.08 0.20 0.18 0.03 0.10 0.42 0.55 0.09 0.04 0.00 0.00 0.00 0.00 0.01 0.01 0.01 0.01 0.00 0.00 0.00 0.01 0.00 0.06 0.15 0.25 0.15 0.12 0.10 0.10 0.09 0.07 0.08 0.07 0.08 0.07 0.07 0.06 0.05 0.05 0.05
0.04 0.05 0.02 0.02 0.06 0.22 0.20 0.08 0.07 0.32 0.17 0.23 0.06 0.00 0.00 0.00 0.00 0.01 0.01 0.00 0.00 0.01 0.00 0.00 0.01 0.01 0.05 0.19 0.18 0.17 0.20 0.19 0.16 0.15 0.12 0.07 0.06 0.08 0.07 0.06 0.07 0.05 0.05 0.04
0.05 0.09 0.06 0.06 0.05 0.10 0.16 0.04 0.06 0.05 0.02 0.02 0.00 0.00 0.01 0.00 0.01 0.06 0.03 0.01 0.01 0.00 0.00 0.00 0.00 0.00 0.02 0.08 0.15 0.15 0.19 0.17 0.10 0.10 0.09 0.07 0.05 0.06 0.08 0.09 0.09 0.09 0.09 0.10
0.06 0.08 0.15 0.07 0.04 0.11 0.13 0.04 0.02 0.01 0.00 0.01 0.01 0.01 0.01 0.07 0.18 0.16 0.03 0.01 0.00 0.00 0.00 0.00 0.00 0.00 0.02 0.11 0.19 0.61 0.74 0.37 0.09 0.21 0.16 0.12 0.08 0.09 0.12 0.14 0.16 0.14 0.12 0.15
0.02 0.06 0.19 0.09 0.09 0.24 0.13 0.02 0.00 0.00 0.00 0.00 0.01 0.01 0.04 0.16 0.27 0.07 0.01 0.01 0.00 0.00 0.00 0.00 0.00 0.00 0.02 0.13 0.53 0.65 0.86 0.35 0.16 0.29 0.47 0.52 0.47 0.39 0.39 0.41 0.40 0.32 0.30 0.29
0.01 0.06 0.18 0.16 0.17 0.09 0.01 0.00 0.00 0.00 0.00 0.00 0.03 0.01 0.02 0.07 0.07 0.03 0.01 0.01 0.01 0.01 0.01 0.01 0.00 0.00 0.01 0.08 0.30 0.32 0.47 0.53 0.56 0.85 0.84 0.80 0.66 0.62 0.87 1.01 0.86 0.75 0.73 0.68
0.02 0.03 0.16 0.10 0.09 0.01 0.01 0.00 0.00 0.02 0.01 0.00 0.04 0.03 0.01 0.02 0.03 0.04 0.00 0.01 0.01 0.01 0.00 0.00 0.01 0.02 0.03 0.06 0.22 0.56 0.97 0.79 0.72 0.81 0.97 0.89 0.78 0.64 0.75 0.70 0.76 0.71 0.63 0.68
0.07 0.09 0.14 0.12 0.14 0.00 0.00 0.00 0.00 0.00 0.01 0.00 0.02 0.05 0.01 0.01 0.00 0.03 0.09 0.07 0.04 0.02 0.03 0.04 0.05 0.14 0.19 0.29 0.61 0.84 0.99 0.90 0.89 0.92 0.79 0.66 0.55 0.71 0.67 0.69 0.53 0.61 0.53 0.41
0.01 0.03 0.06 0.06 0.07 0.00 0.00 0.00 0.00 0.00 0.00 0.00 0.00 0.04 0.04 0.00 0.00 0.00 0.02 0.08 0.10 0.14 0.19 0.07 0.22 0.66 0.79 0.59 0.55 0.45 0.50 0.47 0.26 0.37 0.34 0.37 0.26 0.32 0.42 0.27 0.25 0.23 0.19 0.13
0.00 0.00 0.00 0.00 0.00 0.00 0.00 0.00 0.00 0.00 0.00 0.00 0.01 0.01 0.01 0.02 0.05 0.04 0.01 0.01 0.02 0.04 0.07 0.01 0.07 0.12 0.09 0.04 0.01 0.03 0.05 0.05 0.00 0.00 0.00 0.00 0.00 0.00 0.01 0.00 0.00 0.00 0.00 0.00
0.00 0.00 0.00 0.00 0.00 0.00 0.00 0.00 0.00 0.00 0.00 0.00 0.02 0.02 0.00 0.00 0.00 0.00 0.00 0.00 0.00 0.00 0.00 0.00 0.00 0.00 0.00 0.00 0.00 0.00 0.00 0.00 0.00 0.00 0.00 0.00 0.00 0.00 0.00 0.00 0.00 0.00 0.00 0.00
0.01 0.00 0.00 0.00 0.00 0.00 0.00 0.00 0.00 0.00 0.00 0.00 0.00 0.00 0.00 0.00 0.00 0.00 0.00 0.00 0.00 0.01 0.04 0.07 0.09 0.09 0.05 0.01 0.01 0.01 0.01 0.01 0.01 0.00 0.00 0.00 0.00 0.00 0.00 0.00 0.00 0.00 0.00 0.00
0.00 0.00 0.00 0.00 0.00 0.00 0.00 0.00 0.00 0.00 0.00 0.00 0.00 0.00 0.00 0.00 0.00 0.00 0.00 0.00 0.00 0.00 0.00 0.01 0.06 0.12 0.17 0.16 0.12 0.06 0.04 0.02 0.00 0.00 0.00 0.00 0.00 0.00 0.00 0.00 0.00 0.00 0.00 0.00

GFSCGP_prec_precacc_057.txt.gz
Total_Precipitation_Accumulation
2.43 1.29 0.19 0.02 0.00 0.00 0.00 0.00 0.01 0.04 0.07 0.05 0.03 0.02 0.00 0.01 0.03 0.03 0.00 0.00 0.00 0.00 0.00 0.00 0.00 0.00 0.00 0.00 0.00 0.00 0.01 0.02 0.09 0.11 0.09 0.14 0.10 0.13 0.17 0.17 0.25 0.28 0.20 0.19
1.80 0.72 0.07 0.02 0.00 0.00 0.00 0.00 0.00 0.02 0.05 0.09 0.06 0.02 0.00 0.00 0.00 0.01 0.00 0.00 0.00 0.00 0.00 0.00 0.00 0.00 0.00 0.00 0.00 0.00 0.00 0.00 0.03 0.09 0.13 0.18 0.20 0.12 0.09 0.15 0.11 0.15 0.13 0.14
0.96 0.34 0.08 0.11 0.03 0.01 0.00 0.00 0.00 0.01 0.03 0.05 0.02 0.02 0.00 0.00 0.00 0.00 0.00 0.00 0.00 0.00 0.00 0.00 0.00 0.00 0.00 0.00 0.00 0.00 0.00 0.01 0.04 0.10 0.15 0.20 0.24 0.16 0.09 0.05 0.02 0.05 0.12 0.14
1.26 0.37 0.12 0.12 0.11 0.00 0.00 0.00 0.00 0.00 0.00 0.00 0.00 0.00 0.00 0.00 0.00 0.00 0.00 0.00 0.00 0.00 0.00 0.00 0.00 0.00 0.00 0.00 0.00 0.00 0.00 0.01 0.04 0.09 0.08 0.08 0.05 0.06 0.06 0.07 0.16 0.20 0.18 0.21
1.18 0.48 0.19 0.15 0.08 0.02 0.00 0.00 0.00 0.00 0.01 0.01 0.00 0.01 0.00 0.00 0.00 0.00 0.00 0.00 0.00 0.00 0.00 0.00 0.00 0.00 0.00 0.00 0.00 0.00 0.00 0.00 0.01 0.09 0.09 0.10 0.06 0.06 0.07 0.13 0.19 0.18 0.18 0.21
0.65 0.42 0.35 0.23 0.06 0.03 0.00 0.00 0.00 0.00 0.02 0.04 0.00 0.00 0.00 0.00 0.00 0.00 0.00 0.00 0.00 0.00 0.00 0.00 0.00 0.00 0.00 0.00 0.00 0.00 0.00 0.00 0.01 0.02 0.06 0.07 0.06 0.04 0.09 0.09 0.11 0.13 0.14 0.15
1.06 0.66 0.30 0.21 0.06 0.05 0.00 0.04 0.09 0.09 0.11 0.03 0.00 0.00 0.00 0.00 0.00 0.00 0.00 0.00 0.00 0.00 0.00 0.00 0.00 0.00 0.00 0.00 0.00 0.00 0.00 0.00 0.00 0.00 0.02 0.03 0.04 0.06 0.08 0.12 0.14 0.11 0.10 0.08
0.88 0.95 0.39 0.30 0.05 0.03 0.00 0.02 0.06 0.02 0.01 0.00 0.00 0.00 0.00 0.00 0.00 0.00 0.00 0.00 0.00 0.00 0.00 0.00 0.00 0.00 0.00 0.00 0.00 0.00 0.00 0.00 0.00 0.01 0.02 0.04 0.05 0.08 0.11 0.14 0.11 0.10 0.10 0.11
0.21 0.27 0.21 0.19 0.06 0.04 0.10 0.12 0.04 0.15 0.10 0.12 0.02 0.00 0.00 0.00 0.00 0.00 0.00 0.00 0.00 0.00 0.00 0.00 0.00 0.00 0.00 0.00 0.00 0.00 0.00 0.00 0.01 0.03 0.07 0.06 0.05 0.08 0.08 0.10 0.10 0.11 0.10 0.12
0.01 0.13 0.16 0.14 0.12 0.06 0.02 0.03 0.11 0.24 0.15 0.06 0.00 0.00 0.00 0.00 0.00 0.00 0.00 0.00 0.00 0.00 0.00 0.00 0.00 0.00 0.00 0.00 0.00 0.00 0.00 0.02 0.03 0.06 0.10 0.03 0.05 0.07 0.07 0.07 0.05 0.06 0.09 0.10
0.00 0.04 0.13 0.21 0.23 0.08 0.02 0.09 0.12 0.17 0.14 0.08 0.03 0.00 0.00 0.00 0.00 0.00 0.00 0.00 0.00 0.00 0.00 0.00 0.00 0.00 0.00 0.00 0.00 0.00 0.01 0.04 0.06 0.05 0.03 0.02 0.04 0.06 0.07 0.07 0.05 0.05 0.07 0.07
0.00 0.04 0.08 0.11 0.03 0.00 0.01 0.01 0.04 0.22 0.08 0.13 0.06 0.03 0.00 0.00 0.00 0.00 0.00 0.00 0.00 0.00 0.00 0.00 0.00 0.00 0.00 0.00 0.00 0.00 0.05 0.07 0.03 0.02 0.02 0.02 0.03 0.04 0.05 0.05 0.07 0.07 0.07 0.05
0.00 0.05 0.10 0.16 0.13 0.06 0.06 0.02 0.10 0.21 0.39 0.24 0.12 0.03 0.00 0.00 0.00 0.00 0.00 0.00 0.00 0.00 0.00 0.02 0.00 0.00 0.01 0.02 0.07 0.12 0.10 0.03 0.04 0.04 0.03 0.03 0.04 0.05 0.06 0.06 0.06 0.06 0.06 0.06
0.01 0.03 0.02 0.05 0.08 0.20 0.18 0.03 0.10 0.42 0.55 0.09 0.04 0.00 0.00 0.00 0.00 0.01 0.01 0.01 0.01 0.00 0.00 0.00 0.01 0.00 0.06 0.15 0.25 0.15 0.12 0.10 0.10 0.09 0.07 0.08 0.07 0.08 0.07 0.07 0.06 0.05 0.05 0.05
0.04 0.05 0.02 0.02 0.06 0.22 0.20 0.08 0.07 0.32 0.17 0.23 0.06 0.00 0.00 0.00 0.00 0.01 0.01 0.00 0.00 0.01 0.00 0.00 0.01 0.01 0.05 0.19 0.18 0.17 0.20 0.19 0.16 0.15 0.12 0.07 0.06 0.08 0.07 0.06 0.07 0.05 0.05 0.04
0.05 0.09 0.06 0.06 0.05 0.10 0.16 0.04 0.06 0.05 0.02 0.02 0.00 0.00 0.01 0.00 0.01 0.06 0.03 0.01 0.01 0.00 0.00 0.00 0.00 0.00 0.02 0.08 0.15 0.15 0.19 0.17 0.10 0.10 0.09 0.07 0.05 0.06 0.08 0.09 0.09 0.09 0.09 0.10
0.06 0.08 0.15 0.07 0.04 0.11 0.13 0.04 0.02 0.01 0.00 0.01 0.01 0.01 0.01 0.07 0.18 0.16 0.03 0.01 0.00 0.00 0.00 0.00 0.00 0.00 0.02 0.11 0.19 0.61 0.74 0.37 0.09 0.21 0.16 0.12 0.08 0.09 0.12 0.14 0.16 0.14 0.12 0.15
0.02 0.06 0.19 0.09 0.09 0.24 0.13 0.02 0.00 0.00 0.00 0.00 0.01 0.01 0.04 0.16 0.27 0.07 0.01 0.01 0.00 0.00 0.00 0.00 0.00 0.00 0.02 0.13 0.53 0.65 0.86 0.35 0.16 0.29 0.47 0.52 0.47 0.39 0.39 0.41 0.40 0.32 0.30 0.29
0.01 0.06 0.18 0.16 0.17 0.09 0.01 0.00 0.00 0.00 0.00 0.00 0.03 0.01 0.02 0.07 0.07 0.03 0.01 0.01 0.01 0.01 0.01 0.01 0.00 0.00 0.01 0.08 0.30 0.32 0.47 0.53 0.56 0.85 0.84 0.80 0.66 0.62 0.87 1.01 0.86 0.75 0.73 0.68
0.02 0.03 0.16 0.10 0.09 0.01 0.01 0.00 0.00 0.02 0.01 0.00 0.04 0.03 0.01 0.02 0.03 0.04 0.00 0.01 0.01 0.01 0.00 0.00 0.01 0.02 0.03 0.06 0.22 0.56 0.97 0.79 0.72 0.81 0.97 0.89 0.78 0.64 0.75 0.70 0.76 0.71 0.63 0.68
0.07 0.10 0.15 0.13 0.15 0.00 0.00 0.00 0.00 0.00 0.01 0.00 0.02 0.05 0.01 0.01 0.00 0.03 0.09 0.07 0.04 0.02 0.03 0.04 0.05 0.14 0.19 0.29 0.61 0.84 0.99 0.90 0.89 0.92 0.79 0.66 0.55 0.71 0.67 0.69 0.53 0.61 0.53 0.41
0.02 0.04 0.06 0.07 0.08 0.00 0.00 0.00 0.00 0.00 0.00 0.00 0.00 0.04 0.04 0.00 0.00 0.00 0.02 0.08 0.10 0.14 0.19 0.07 0.22 0.66 0.79 0.59 0.55 0.45 0.50 0.47 0.26 0.37 0.34 0.37 0.26 0.32 0.42 0.27 0.25 0.23 0.19 0.13
0.00 0.00 0.00 0.00 0.00 0.00 0.00 0.00 0.00 0.00 0.00 0.00 0.01 0.01 0.01 0.02 0.05 0.04 0.01 0.01 0.02 0.04 0.07 0.01 0.07 0.12 0.09 0.04 0.01 0.03 0.05 0.05 0.00 0.00 0.00 0.00 0.00 0.00 0.01 0.00 0.00 0.00 0.00 0.00
0.00 0.00 0.00 0.00 0.00 0.00 0.00 0.00 0.00 0.00 0.00 0.00 0.02 0.02 0.00 0.00 0.00 0.00 0.00 0.00 0.00 0.00 0.00 0.00 0.00 0.00 0.00 0.00 0.00 0.00 0.00 0.00 0.00 0.00 0.00 0.00 0.00 0.00 0.00 0.00 0.00 0.00 0.00 0.00
0.01 0.00 0.00 0.00 0.00 0.00 0.00 0.00 0.00 0.00 0.00 0.00 0.00 0.00 0.00 0.00 0.00 0.00 0.00 0.00 0.00 0.01 0.04 0.07 0.09 0.09 0.05 0.01 0.01 0.01 0.01 0.02 0.03 0.02 0.02 0.01 0.00 0.00 0.00 0.00 0.00 0.00 0.00 0.00
0.00 0.00 0.00 0.00 0.00 0.00 0.00 0.00 0.00 0.00 0.00 0.00 0.00 0.00 0.00 0.00 0.00 0.00 0.00 0.00 0.00 0.00 0.00 0.01 0.06 0.12 0.19 0.19 0.17 0.12 0.08 0.06 0.05 0.04 0.02 0.00 0.00 0.00 0.00 0.00 0.00 0.00 0.00 0.00

GFSCGP_prec_precacc_060.txt.gz
Total_Precipitation_Accumulation
2.76 1.46 0.32 0.04 0.00 0.00 0.00 0.00 0.01 0.05 0.10 0.06 0.03 0.02 0.00 0.01 0.03 0.03 0.00 0.00 0.00 0.00 0.00 0.00 0.00 0.00 0.00 0.01 0.01 0.00 0.02 0.02 0.09 0.11 0.09 0.14 0.10 0.13 0.17 0.17 0.25 0.28 0.20 0.19
2.03 0.80 0.10 0.03 0.00 0.00 0.00 0.00 0.02 0.07 0.10 0.11 0.07 0.02 0.00 0.00 0.00 0.01 0.00 0.00 0.00 0.00 0.00 0.00 0.00 0.00 0.00 0.01 0.05 0.00 0.00 0.00 0.03 0.09 0.13 0.18 0.20 0.13 0.10 0.15 0.11 0.15 0.13 0.14
1.09 0.38 0.14 0.12 0.03 0.01 0.00 0.00 0.03 0.03 0.06 0.06 0.03 0.02 0.00 0.00 0.00 0.00 0.00 0.00 0.00 0.00 0.00 0.00 0.00 0.00 0.00 0.00 0.02 0.07 0.02 0.01 0.04 0.10 0.15 0.20 0.28 0.18 0.11 0.07 0.02 0.05 0.12 0.14
1.29 0.41 0.18 0.13 0.12 0.00 0.00 0.00 0.01 0.01 0.01 0.01 0.00 0.00 0.00 0.00 0.00 0.00 0.00 0.00 0.00 0.00 0.00 0.00 0.00 0.00 0.00 0.00 0.00 0.02 0.08 0.07 0.07 0.11 0.10 0.16 0.14 0.10 0.09 0.07 0.16 0.20 0.18 0.21
1.19 0.57 0.27 0.17 0.08 0.02 0.00 0.00 0.01 0.02 0.01 0.01 0.00 0.01 0.00 0.00 0.00 0.00 0.00 0.00 0.00 0.00 0.00 0.00 0.00 0.00 0.00 0.00 0.00 0.00 0.01 0.02 0.04 0.11 0.10 0.12 0.08 0.07 0.08 0.13 0.19 0.18 0.18 0.21
0.67 0.53 0.40 0.25 0.06 0.03 0.00 0.00 0.00 0.00 0.02 0.04 0.00 0.00 0.00 0.00 0.00 0.00 0.00 0.00 0.00 0.00 0.00 0.00 0.00 0.00 0.00 0.00 0.00 0.00 0.00 0.00 0.01 0.03 0.06 0.08 0.06 0.05 0.09 0.09 0.11 0.13 0.14 0.15
1.15 0.75 0.34 0.23 0.07 0.05 0.00 0.04 0.09 0.10 0.11 0.03 0.00 0.00 0.00 0.00 0.00 0.00 0.00 0.00 0.00 0.00 0.00 0.00 0.00 0.00 0.00 0.00 0.00 0.00 0.00 0.00 0.00 0.00 0.02 0.03 0.04 0.06 0.08 0.12 0.14 0.11 0.10 0.08
1.02 1.17 0.48 0.31 0.05 0.03 0.01 0.02 0.07 0.03 0.01 0.00 0.00 0.00 0.00 0.00 0.00 0.00 0.00 0.00 0.00 0.00 0.00 0.00 0.00 0.00 0.00 0.00 0.00 0.00 0.00 0.00 0.00 0.01 0.02 0.04 0.05 0.08 0.11 0.14 0.11 0.10 0.10 0.11
0.27 0.40 0.26 0.20 0.06 0.04 0.10 0.12 0.04 0.15 0.10 0.12 0.02 0.00 0.00 0.00 0.00 0.00 0.00 0.00 0.00 0.00 0.00 0.00 0.00 0.00 0.00 0.00 0.00 0.00 0.00 0.00 0.01 0.03 0.07 0.06 0.05 0.08 0.08 0.10 0.10 0.11 0.10 0.12
0.01 0.16 0.18 0.14 0.12 0.06 0.02 0.03 0.11 0.25 0.15 0.06 0.00 0.00 0.00 0.00 0.00 0.00 0.00 0.00 0.00 0.00 0.00 0.00 0.00 0.00 0.00 0.00 0.00 0.00 0.00 0.02 0.03 0.06 0.10 0.03 0.05 0.07 0.07 0.07 0.05 0.06 0.09 0.10
0.00 0.05 0.16 0.22 0.25 0.09 0.02 0.09 0.12 0.17 0.14 0.09 0.03 0.00 0.00 0.00 0.00 0.00 0.00 0.00 0.00 0.00 0.00 0.00 0.00 0.00 0.00 0.00 0.00 0.00 0.01 0.04 0.06 0.05 0.03 0.02 0.04 0.06 0.07 0.07 0.05 0.05 0.07 0.07
0.00 0.04 0.08 0.13 0.03 0.01 0.02 0.01 0.04 0.23 0.09 0.13 0.06 0.03 0.00 0.00 0.00 0.00 0.00 0.00 0.00 0.00 0.00 0.00 0.00 0.00 0.00 0.00 0.00 0.00 0.05 0.07 0.03 0.02 0.02 0.02 0.03 0.04 0.05 0.05 0.07 0.07 0.07 0.05
0.00 0.05 0.10 0.17 0.14 0.06 0.06 0.02 0.10 0.21 0.39 0.25 0.12 0.03 0.00 0.00 0.00 0.00 0.00 0.00 0.00 0.00 0.00 0.02 0.00 0.00 0.01 0.02 0.07 0.12 0.10 0.03 0.04 0.04 0.03 0.03 0.04 0.05 0.06 0.06 0.06 0.06 0.06 0.06
0.01 0.03 0.02 0.06 0.08 0.20 0.18 0.03 0.10 0.42 0.55 0.09 0.04 0.00 0.00 0.00 0.00 0.01 0.01 0.01 0.01 0.00 0.00 0.00 0.01 0.00 0.06 0.15 0.25 0.15 0.12 0.10 0.10 0.09 0.07 0.08 0.07 0.08 0.07 0.07 0.06 0.05 0.05 0.05
0.04 0.05 0.02 0.02 0.06 0.22 0.20 0.08 0.07 0.32 0.17 0.23 0.06 0.00 0.00 0.00 0.00 0.01 0.01 0.00 0.00 0.01 0.00 0.00 0.01 0.01 0.05 0.19 0.18 0.17 0.20 0.19 0.16 0.15 0.12 0.07 0.06 0.08 0.07 0.06 0.07 0.05 0.05 0.04
0.05 0.09 0.06 0.06 0.05 0.10 0.16 0.04 0.06 0.06 0.02 0.02 0.01 0.00 0.01 0.00 0.01 0.06 0.03 0.01 0.01 0.00 0.00 0.00 0.00 0.00 0.02 0.08 0.15 0.15 0.19 0.17 0.10 0.10 0.09 0.07 0.05 0.06 0.08 0.09 0.09 0.09 0.09 0.10
0.06 0.08 0.15 0.07 0.04 0.11 0.13 0.04 0.02 0.01 0.00 0.01 0.01 0.01 0.01 0.07 0.18 0.16 0.03 0.01 0.00 0.00 0.00 0.00 0.00 0.00 0.02 0.11 0.19 0.61 0.74 0.37 0.09 0.21 0.16 0.12 0.08 0.09 0.12 0.14 0.16 0.14 0.12 0.15
0.02 0.06 0.19 0.09 0.09 0.24 0.13 0.02 0.00 0.00 0.00 0.00 0.01 0.01 0.04 0.16 0.27 0.07 0.01 0.01 0.00 0.00 0.00 0.00 0.00 0.00 0.02 0.13 0.53 0.65 0.86 0.35 0.16 0.29 0.47 0.52 0.47 0.39 0.39 0.41 0.40 0.32 0.30 0.29
0.01 0.06 0.18 0.16 0.17 0.09 0.01 0.00 0.00 0.00 0.00 0.00 0.03 0.01 0.02 0.07 0.07 0.03 0.01 0.01 0.01 0.01 0.01 0.01 0.00 0.00 0.01 0.08 0.30 0.32 0.47 0.53 0.56 0.85 0.84 0.80 0.66 0.62 0.87 1.01 0.86 0.75 0.73 0.68
0.02 0.03 0.16 0.10 0.09 0.01 0.01 0.00 0.00 0.02 0.01 0.00 0.04 0.03 0.01 0.02 0.03 0.04 0.00 0.01 0.01 0.01 0.00 0.00 0.01 0.02 0.03 0.06 0.22 0.56 0.97 0.79 0.72 0.81 0.97 0.89 0.78 0.64 0.75 0.70 0.76 0.71 0.63 0.68
0.07 0.10 0.15 0.14 0.15 0.00 0.00 0.00 0.00 0.00 0.01 0.00 0.02 0.05 0.01 0.01 0.00 0.03 0.09 0.07 0.04 0.02 0.03 0.04 0.05 0.14 0.19 0.29 0.61 0.84 0.99 0.90 0.89 0.92 0.79 0.66 0.55 0.71 0.67 0.69 0.53 0.61 0.53 0.41
0.02 0.04 0.06 0.07 0.08 0.00 0.00 0.00 0.00 0.00 0.00 0.00 0.00 0.04 0.04 0.00 0.00 0.00 0.02 0.08 0.10 0.14 0.19 0.07 0.22 0.66 0.79 0.59 0.55 0.45 0.50 0.47 0.26 0.37 0.34 0.37 0.26 0.32 0.42 0.27 0.25 0.23 0.19 0.13
0.00 0.00 0.00 0.00 0.00 0.00 0.00 0.00 0.00 0.00 0.00 0.00 0.01 0.01 0.01 0.02 0.05 0.04 0.01 0.01 0.02 0.04 0.07 0.01 0.07 0.12 0.09 0.04 0.01 0.03 0.05 0.05 0.00 0.00 0.00 0.00 0.00 0.00 0.01 0.00 0.00 0.00 0.00 0.00
0.00 0.00 0.00 0.00 0.00 0.00 0.00 0.00 0.00 0.00 0.00 0.00 0.02 0.02 0.00 0.00 0.00 0.00 0.00 0.00 0.00 0.00 0.00 0.00 0.00 0.00 0.00 0.00 0.00 0.00 0.00 0.00 0.00 0.00 0.00 0.00 0.00 0.00 0.00 0.00 0.00 0.00 0.00 0.00
0.01 0.00 0.00 0.00 0.00 0.00 0.00 0.00 0.00 0.00 0.00 0.00 0.00 0.00 0.00 0.00 0.00 0.00 0.00 0.00 0.00 0.01 0.04 0.07 0.09 0.09 0.05 0.01 0.01 0.01 0.01 0.02 0.03 0.02 0.02 0.01 0.01 0.00 0.00 0.00 0.00 0.00 0.00 0.00
0.00 0.00 0.00 0.00 0.00 0.00 0.00 0.00 0.00 0.00 0.00 0.00 0.00 0.00 0.00 0.00 0.00 0.00 0.00 0.00 0.00 0.00 0.00 0.01 0.06 0.12 0.19 0.19 0.17 0.12 0.08 0.07 0.05 0.05 0.03 0.02 0.01 0.00 0.00 0.00 0.00 0.00 0.00 0.00

GFSCGP_prec_precacc_063.txt.gz
Total_Precipitation_Accumulation
2.79 1.70 0.42 0.04 0.00 0.00 0.00 0.00 0.01 0.05 0.14 0.13 0.04 0.02 0.00 0.01 0.03 0.03 0.00 0.00 0.00 0.00 0.00 0.00 0.00 0.00 0.01 0.07 0.15 0.12 0.09 0.04 0.09 0.11 0.09 0.14 0.10 0.13 0.17 0.17 0.25 0.28 0.20 0.19
2.08 0.89 0.13 0.04 0.00 0.00 0.01 0.00 0.03 0.07 0.12 0.13 0.07 0.02 0.00 0.00 0.00 0.01 0.00 0.00 0.00 0.00 0.00 0.00 0.00 0.00 0.00 0.05 0.12 0.10 0.12 0.08 0.03 0.09 0.13 0.18 0.20 0.13 0.10 0.15 0.11 0.15 0.13 0.14
1.12 0.42 0.24 0.20 0.05 0.03 0.01 0.00 0.05 0.06 0.13 0.10 0.04 0.02 0.00 0.00 0.00 0.00 0.00 0.00 0.00 0.00 0.00 0.00 0.00 0.00 0.00 0.00 0.03 0.08 0.09 0.06 0.11 0.11 0.16 0.22 0.28 0.19 0.13 0.10 0.02 0.06 0.12 0.15
1.38 0.42 0.24 0.21 0.13 0.01 0.00 0.00 0.02 0.09 0.06 0.03 0.01 0.00 0.00 0.00 0.00 0.00 0.00 0.00 0.00 0.00 0.00 0.00 0.00 0.00 0.00 0.00 0.00 0.02 0.16 0.19 0.12 0.15 0.17 0.29 0.24 0.17 0.14 0.11 0.16 0.20 0.18 0.21
1.25 0.58 0.33 0.21 0.09 0.03 0.02 0.00 0.04 0.08 0.03 0.02 0.00 0.01 0.00 0.00 0.00 0.00 0.00 0.00 0.00 0.00 0.00 0.00 0.00 0.00 0.00 0.00 0.00 0.00 0.06 0.11 0.20 0.33 0.32 0.28 0.19 0.15 0.12 0.15 0.20 0.20 0.19 0.21
0.70 0.61 0.45 0.28 0.08 0.04 0.01 0.01 0.08 0.04 0.03 0.04 0.00 0.00 0.00 0.00 0.00 0.00 0.00 0.00 0.00 0.00 0.00 0.00 0.00 0.00 0.00 0.00 0.00 0.00 0.00 0.01 0.06 0.09 0.14 0.17 0.14 0.10 0.14 0.12 0.13 0.14 0.14 0.15
1.23 0.92 0.35 0.23 0.07 0.05 0.00 0.04 0.15 0.13 0.11 0.03 0.00 0.00 0.00 0.00 0.00 0.00 0.00 0.00 0.00 0.00 0.00 0.00 0.00 0.00 0.00 0.00 0.00 0.00 0.00 0.00 0.01 0.03 0.04 0.05 0.05 0.08 0.10 0.13 0.14 0.11 0.10 0.08
1.12 1.28 0.49 0.31 0.05 0.03 0.01 0.02 0.07 0.03 0.01 0.00 0.00 0.00 0.00 0.00 0.00 0.00 0.00 0.00 0.00 0.00 0.00 0.00 0.00 0.00 0.00 0.00 0.00 0.00 0.00 0.00 0.00 0.01 0.02 0.05 0.05 0.08 0.11 0.14 0.11 0.10 0.10 0.11
0.31 0.44 0.28 0.20 0.06 0.04 0.10 0.12 0.04 0.15 0.10 0.12 0.02 0.00 0.00 0.00 0.00 0.00 0.00 0.00 0.00 0.00 0.00 0.00 0.00 0.00 0.00 0.00 0.00 0.00 0.00 0.00 0.01 0.03 0.07 0.06 0.05 0.08 0.08 0.10 0.10 0.11 0.10 0.12
0.01 0.23 0.23 0.15 0.12 0.06 0.02 0.03 0.11 0.25 0.15 0.06 0.00 0.00 0.00 0.00 0.00 0.00 0.00 0.00 0.00 0.00 0.00 0.00 0.00 0.00 0.00 0.00 0.00 0.00 0.00 0.02 0.03 0.06 0.10 0.03 0.05 0.07 0.07 0.07 0.05 0.06 0.09 0.10
0.00 0.07 0.19 0.22 0.25 0.10 0.02 0.09 0.12 0.17 0.14 0.09 0.03 0.00 0.00 0.00 0.00 0.00 0.00 0.00 0.00 0.00 0.00 0.00 0.00 0.00 0.00 0.00 0.00 0.00 0.01 0.04 0.06 0.05 0.03 0.02 0.04 0.06 0.07 0.07 0.05 0.05 0.07 0.07
0.00 0.04 0.09 0.13 0.03 0.01 0.02 0.01 0.04 0.23 0.09 0.13 0.06 0.03 0.00 0.00 0.00 0.00 0.00 0.00 0.00 0.00 0.00 0.00 0.00 0.00 0.00 0.00 0.00 0.00 0.05 0.07 0.03 0.02 0.02 0.02 0.03 0.04 0.05 0.05 0.07 0.07 0.07 0.05
0.00 0.05 0.11 0.17 0.15 0.06 0.06 0.02 0.10 0.21 0.39 0.25 0.12 0.03 0.00 0.00 0.00 0.00 0.00 0.00 0.00 0.00 0.00 0.02 0.00 0.00 0.01 0.02 0.07 0.12 0.10 0.03 0.04 0.04 0.03 0.03 0.04 0.05 0.06 0.06 0.06 0.06 0.06 0.06
0.01 0.03 0.02 0.06 0.09 0.20 0.18 0.03 0.10 0.42 0.55 0.09 0.04 0.00 0.00 0.00 0.00 0.01 0.01 0.01 0.01 0.00 0.00 0.00 0.01 0.00 0.06 0.15 0.25 0.15 0.12 0.10 0.10 0.09 0.07 0.08 0.07 0.08 0.07 0.07 0.06 0.05 0.05 0.05
0.04 0.05 0.02 0.02 0.06 0.22 0.20 0.08 0.07 0.32 0.17 0.23 0.06 0.00 0.00 0.00 0.00 0.01 0.01 0.00 0.00 0.01 0.00 0.00 0.01 0.01 0.05 0.19 0.18 0.17 0.20 0.19 0.16 0.15 0.12 0.07 0.06 0.08 0.07 0.06 0.07 0.05 0.05 0.04
0.05 0.09 0.06 0.06 0.05 0.10 0.16 0.04 0.06 0.06 0.02 0.02 0.01 0.00 0.01 0.00 0.01 0.06 0.03 0.01 0.01 0.00 0.00 0.00 0.00 0.00 0.02 0.08 0.15 0.15 0.19 0.17 0.10 0.10 0.09 0.07 0.05 0.06 0.08 0.09 0.09 0.09 0.09 0.10
0.06 0.08 0.15 0.07 0.04 0.11 0.13 0.04 0.02 0.01 0.00 0.01 0.01 0.01 0.01 0.07 0.18 0.16 0.03 0.01 0.00 0.00 0.00 0.00 0.00 0.00 0.02 0.11 0.19 0.61 0.74 0.37 0.09 0.21 0.16 0.12 0.08 0.09 0.12 0.14 0.16 0.14 0.12 0.15
0.02 0.06 0.19 0.09 0.09 0.24 0.13 0.02 0.00 0.00 0.00 0.00 0.01 0.01 0.04 0.16 0.27 0.07 0.01 0.01 0.00 0.00 0.00 0.00 0.00 0.00 0.02 0.13 0.53 0.65 0.86 0.35 0.16 0.29 0.47 0.52 0.47 0.39 0.39 0.41 0.40 0.32 0.30 0.29
0.01 0.06 0.18 0.16 0.17 0.09 0.01 0.00 0.00 0.00 0.00 0.00 0.03 0.01 0.02 0.07 0.07 0.03 0.01 0.01 0.01 0.01 0.01 0.01 0.00 0.00 0.01 0.08 0.30 0.32 0.47 0.53 0.56 0.85 0.84 0.80 0.66 0.62 0.87 1.01 0.86 0.75 0.73 0.68
0.02 0.03 0.16 0.10 0.09 0.01 0.01 0.00 0.00 0.02 0.01 0.00 0.04 0.03 0.01 0.02 0.03 0.04 0.00 0.01 0.01 0.01 0.00 0.00 0.01 0.02 0.03 0.06 0.22 0.56 0.97 0.79 0.72 0.81 0.97 0.89 0.78 0.64 0.75 0.70 0.76 0.71 0.63 0.68
0.07 0.10 0.15 0.14 0.15 0.00 0.00 0.00 0.00 0.00 0.01 0.00 0.02 0.05 0.01 0.01 0.00 0.03 0.09 0.07 0.04 0.02 0.03 0.04 0.05 0.14 0.19 0.29 0.61 0.84 0.99 0.90 0.89 0.92 0.79 0.66 0.55 0.71 0.67 0.69 0.53 0.61 0.53 0.41
0.02 0.04 0.06 0.07 0.09 0.01 0.00 0.00 0.00 0.00 0.00 0.00 0.00 0.04 0.04 0.00 0.00 0.00 0.02 0.08 0.10 0.14 0.19 0.07 0.22 0.66 0.79 0.59 0.55 0.45 0.50 0.47 0.26 0.37 0.34 0.37 0.26 0.32 0.42 0.27 0.25 0.23 0.19 0.13
0.00 0.00 0.00 0.00 0.00 0.00 0.00 0.00 0.00 0.00 0.00 0.00 0.01 0.01 0.01 0.02 0.05 0.04 0.01 0.01 0.02 0.04 0.07 0.01 0.07 0.12 0.09 0.04 0.01 0.03 0.05 0.05 0.00 0.00 0.00 0.00 0.00 0.00 0.01 0.00 0.00 0.00 0.00 0.00
0.00 0.00 0.00 0.00 0.00 0.00 0.00 0.00 0.00 0.00 0.00 0.00 0.02 0.02 0.00 0.00 0.00 0.00 0.00 0.00 0.00 0.00 0.00 0.00 0.00 0.00 0.00 0.00 0.00 0.00 0.00 0.00 0.00 0.00 0.00 0.00 0.00 0.00 0.00 0.00 0.00 0.00 0.00 0.00
0.01 0.00 0.00 0.00 0.00 0.00 0.00 0.00 0.00 0.00 0.00 0.00 0.00 0.00 0.00 0.00 0.00 0.00 0.00 0.00 0.00 0.01 0.04 0.07 0.09 0.09 0.05 0.01 0.01 0.01 0.01 0.02 0.03 0.02 0.02 0.01 0.01 0.00 0.00 0.00 0.00 0.00 0.00 0.00
0.00 0.00 0.00 0.00 0.00 0.00 0.00 0.00 0.00 0.00 0.00 0.00 0.00 0.00 0.00 0.00 0.00 0.00 0.00 0.00 0.00 0.00 0.00 0.01 0.06 0.12 0.19 0.19 0.17 0.12 0.08 0.07 0.05 0.05 0.03 0.02 0.01 0.00 0.00 0.00 0.00 0.00 0.00 0.00

GFSCGP_prec_precacc_066.txt.gz
Total_Precipitation_Accumulation
2.81 1.76 0.56 0.21 0.04 0.00 0.00 0.01 0.04 0.10 0.21 0.24 0.16 0.05 0.02 0.01 0.03 0.03 0.00 0.00 0.00 0.00 0.00 0.00 0.00 0.00 0.03 0.13 0.26 0.25 0.21 0.12 0.10 0.12 0.10 0.14 0.10 0.14 0.17 0.17 0.25 0.28 0.20 0.19
2.08 0.90 0.25 0.20 0.04 0.02 0.02 0.01 0.03 0.09 0.13 0.18 0.15 0.03 0.00 0.00 0.00 0.01 0.00 0.00 0.00 0.00 0.00 0.00 0.00 0.00 0.00 0.08 0.15 0.18 0.18 0.21 0.05 0.09 0.14 0.18 0.20 0.13 0.10 0.15 0.11 0.16 0.13 0.15
1.12 0.42 0.31 0.30 0.06 0.05 0.02 0.00 0.05 0.06 0.13 0.12 0.09 0.07 0.00 0.00 0.00 0.00 0.00 0.00 0.00 0.00 0.00 0.00 0.00 0.00 0.00 0.00 0.03 0.08 0.09 0.08 0.16 0.19 0.30 0.25 0.28 0.19 0.13 0.10 0.02 0.06 0.13 0.15
1.39 0.42 0.28 0.26 0.14 0.02 0.00 0.00 0.03 0.10 0.09 0.08 0.03 0.00 0.00 0.00 0.00 0.00 0.00 0.00 0.00 0.00 0.00 0.00 0.00 0.00 0.00 0.00 0.00 0.03 0.20 0.24 0.25 0.28 0.39 0.52 0.48 0.40 0.33 0.27 0.21 0.22 0.21 0.24
1.27 0.59 0.40 0.26 0.09 0.03 0.02 0.00 0.07 0.11 0.08 0.06 0.03 0.01 0.00 0.00 0.00 0.00 0.00 0.00 0.00 0.00 0.00 0.00 0.00 0.00 0.00 0.00 0.00 0.02 0.16 0.20 0.26 0.43 0.45 0.47 0.31 0.24 0.25 0.29 0.40 0.39 0.38 0.36
0.71 0.66 0.70 0.36 0.09 0.04 0.01 0.01 0.11 0.08 0.07 0.07 0.00 0.00 0.00 0.00 0.00 0.00 0.00 0.00 0.00 0.00 0.00 0.00 0.00 0.00 0.00 0.00 0.00 0.00 0.05 0.08 0.10 0.16 0.24 0.30 0.24 0.20 0.22 0.23 0.26 0.24 0.21 0.20
1.26 1.04 0.56 0.27 0.08 0.05 0.00 0.04 0.30 0.26 0.21 0.04 0.00 0.00 0.00 0.00 0.00 0.00 0.00 0.00 0.00 0.00 0.00 0.00 0.00 0.00 0.00 0.00 0.00 0.00 0.00 0.02 0.04 0.12 0.12 0.14 0.13 0.12 0.15 0.18 0.18 0.14 0.11 0.09
1.19 1.37 0.60 0.35 0.06 0.04 0.01 0.03 0.12 0.07 0.02 0.00 0.00 0.00 0.00 0.00 0.00 0.00 0.00 0.00 0.00 0.00 0.00 0.00 0.00 0.00 0.00 0.00 0.00 0.00 0.00 0.00 0.00 0.03 0.05 0.16 0.15 0.12 0.14 0.16 0.13 0.11 0.10 0.11
0.33 0.46 0.29 0.20 0.06 0.05 0.10 0.12 0.04 0.15 0.10 0.12 0.02 0.00 0.00 0.00 0.00 0.00 0.00 0.00 0.00 0.00 0.00 0.00 0.00 0.00 0.00 0.00 0.00 0.00 0.00 0.00 0.01 0.03 0.07 0.07 0.07 0.11 0.10 0.10 0.10 0.11 0.10 0.12
0.01 0.24 0.23 0.15 0.12 0.06 0.02 0.03 0.11 0.25 0.15 0.06 0.00 0.00 0.00 0.00 0.00 0.00 0.00 0.00 0.00 0.00 0.00 0.00 0.00 0.00 0.00 0.00 0.00 0.00 0.00 0.02 0.03 0.06 0.10 0.03 0.05 0.07 0.07 0.07 0.05 0.06 0.09 0.10
0.00 0.07 0.20 0.22 0.25 0.10 0.02 0.09 0.12 0.17 0.14 0.09 0.03 0.00 0.00 0.00 0.00 0.00 0.00 0.00 0.00 0.00 0.00 0.00 0.00 0.00 0.00 0.00 0.00 0.00 0.01 0.04 0.06 0.05 0.03 0.02 0.04 0.06 0.07 0.07 0.05 0.05 0.07 0.07
0.00 0.04 0.09 0.13 0.03 0.01 0.02 0.01 0.04 0.23 0.09 0.13 0.06 0.03 0.00 0.00 0.00 0.00 0.00 0.00 0.00 0.00 0.00 0.00 0.00 0.00 0.00 0.00 0.00 0.00 0.05 0.07 0.03 0.02 0.02 0.02 0.03 0.04 0.05 0.05 0.07 0.07 0.07 0.05
0.00 0.05 0.11 0.18 0.15 0.06 0.06 0.02 0.10 0.21 0.39 0.25 0.12 0.03 0.00 0.00 0.00 0.00 0.00 0.00 0.00 0.00 0.00 0.02 0.00 0.00 0.01 0.02 0.07 0.12 0.10 0.03 0.04 0.04 0.03 0.03 0.04 0.05 0.06 0.06 0.06 0.06 0.06 0.06
0.01 0.03 0.02 0.06 0.09 0.20 0.18 0.03 0.10 0.42 0.55 0.09 0.04 0.00 0.00 0.00 0.00 0.01 0.01 0.01 0.01 0.00 0.00 0.00 0.01 0.00 0.06 0.15 0.25 0.15 0.12 0.10 0.10 0.09 0.07 0.08 0.07 0.08 0.07 0.07 0.06 0.05 0.05 0.05
0.04 0.05 0.02 0.02 0.06 0.22 0.20 0.08 0.07 0.32 0.17 0.23 0.06 0.00 0.00 0.00 0.00 0.01 0.01 0.00 0.00 0.01 0.00 0.00 0.01 0.01 0.05 0.19 0.18 0.17 0.20 0.19 0.16 0.15 0.12 0.07 0.06 0.08 0.07 0.06 0.07 0.05 0.05 0.04
0.05 0.09 0.06 0.06 0.05 0.10 0.16 0.04 0.06 0.06 0.02 0.02 0.01 0.00 0.01 0.00 0.01 0.06 0.03 0.01 0.01 0.00 0.00 0.00 0.00 0.00 0.02 0.08 0.15 0.15 0.19 0.17 0.10 0.10 0.09 0.07 0.05 0.06 0.08 0.09 0.09 0.09 0.09 0.10
0.06 0.08 0.15 0.07 0.04 0.11 0.13 0.04 0.02 0.01 0.00 0.01 0.01 0.01 0.01 0.07 0.18 0.16 0.03 0.01 0.00 0.00 0.00 0.00 0.00 0.00 0.02 0.11 0.19 0.61 0.74 0.37 0.09 0.21 0.16 0.12 0.08 0.09 0.12 0.14 0.16 0.14 0.12 0.15
0.02 0.06 0.19 0.09 0.09 0.24 0.13 0.02 0.00 0.00 0.00 0.00 0.01 0.01 0.04 0.16 0.27 0.07 0.01 0.01 0.00 0.00 0.00 0.00 0.00 0.00 0.02 0.13 0.53 0.65 0.86 0.35 0.16 0.29 0.47 0.52 0.47 0.39 0.39 0.41 0.40 0.32 0.30 0.29
0.01 0.06 0.18 0.16 0.17 0.09 0.01 0.00 0.00 0.00 0.00 0.00 0.03 0.01 0.02 0.07 0.07 0.03 0.01 0.01 0.01 0.01 0.01 0.01 0.00 0.00 0.01 0.08 0.30 0.32 0.47 0.53 0.56 0.85 0.84 0.80 0.66 0.62 0.87 1.01 0.86 0.75 0.73 0.68
0.02 0.03 0.16 0.10 0.09 0.01 0.01 0.00 0.00 0.02 0.01 0.00 0.04 0.03 0.01 0.02 0.03 0.04 0.00 0.01 0.01 0.01 0.00 0.00 0.01 0.02 0.03 0.06 0.22 0.56 0.97 0.79 0.72 0.81 0.97 0.89 0.78 0.64 0.75 0.70 0.76 0.71 0.63 0.68
0.07 0.10 0.15 0.14 0.15 0.00 0.00 0.00 0.00 0.00 0.01 0.00 0.02 0.05 0.01 0.01 0.00 0.03 0.09 0.07 0.04 0.02 0.03 0.04 0.05 0.14 0.19 0.29 0.61 0.84 0.99 0.90 0.89 0.92 0.79 0.66 0.55 0.71 0.67 0.69 0.53 0.61 0.53 0.41
0.02 0.04 0.06 0.07 0.09 0.01 0.00 0.00 0.00 0.00 0.00 0.00 0.00 0.04 0.04 0.00 0.00 0.00 0.02 0.08 0.10 0.14 0.19 0.07 0.22 0.66 0.79 0.59 0.55 0.45 0.50 0.47 0.26 0.37 0.34 0.37 0.26 0.32 0.42 0.27 0.25 0.23 0.19 0.13
0.00 0.00 0.00 0.00 0.00 0.00 0.00 0.00 0.00 0.00 0.00 0.00 0.01 0.01 0.01 0.02 0.05 0.04 0.01 0.01 0.02 0.04 0.07 0.01 0.07 0.12 0.09 0.04 0.01 0.03 0.05 0.05 0.00 0.00 0.00 0.00 0.00 0.00 0.01 0.00 0.00 0.00 0.00 0.00
0.00 0.00 0.00 0.00 0.00 0.00 0.00 0.00 0.00 0.00 0.00 0.00 0.02 0.02 0.00 0.00 0.00 0.00 0.00 0.00 0.00 0.00 0.00 0.00 0.00 0.00 0.00 0.00 0.00 0.00 0.00 0.00 0.00 0.00 0.00 0.00 0.00 0.00 0.00 0.00 0.00 0.00 0.00 0.00
0.01 0.00 0.00 0.00 0.00 0.00 0.00 0.00 0.00 0.00 0.00 0.00 0.00 0.00 0.00 0.00 0.00 0.00 0.00 0.00 0.00 0.01 0.04 0.07 0.09 0.09 0.05 0.01 0.01 0.01 0.01 0.02 0.03 0.02 0.02 0.01 0.01 0.00 0.00 0.00 0.00 0.00 0.00 0.00
0.00 0.00 0.00 0.00 0.00 0.00 0.00 0.00 0.00 0.00 0.00 0.00 0.00 0.00 0.00 0.00 0.00 0.00 0.00 0.00 0.00 0.00 0.00 0.01 0.06 0.12 0.19 0.19 0.17 0.12 0.08 0.07 0.05 0.05 0.03 0.02 0.01 0.00 0.00 0.00 0.00 0.00 0.00 0.00

GFSCGP_prec_precacc_069.txt.gz
Total_Precipitation_Accumulation
2.83 1.78 0.56 0.22 0.08 0.01 0.01 0.07 0.13 0.17 0.34 0.33 0.36 0.22 0.15 0.02 0.03 0.03 0.00 0.00 0.00 0.00 0.00 0.00 0.01 0.05 0.14 0.18 0.40 0.32 0.31 0.25 0.24 0.28 0.21 0.22 0.16 0.18 0.20 0.21 0.26 0.29 0.20 0.19
2.10 0.93 0.25 0.23 0.11 0.03 0.03 0.03 0.22 0.29 0.25 0.29 0.26 0.14 0.15 0.09 0.01 0.01 0.00 0.00 0.00 0.00 0.00 0.00 0.00 0.00 0.01 0.13 0.25 0.19 0.20 0.23 0.06 0.12 0.16 0.22 0.30 0.19 0.11 0.16 0.11 0.16 0.14 0.15
1.13 0.42 0.32 0.38 0.25 0.09 0.03 0.01 0.11 0.16 0.21 0.20 0.16 0.09 0.07 0.12 0.02 0.00 0.00 0.00 0.00 0.00 0.00 0.00 0.00 0.00 0.00 0.02 0.08 0.12 0.10 0.08 0.16 0.20 0.36 0.33 0.41 0.23 0.15 0.11 0.02 0.07 0.14 0.18
1.39 0.42 0.29 0.40 0.40 0.05 0.00 0.00 0.03 0.11 0.11 0.11 0.06 0.02 0.00 0.01 0.00 0.00 0.00 0.00 0.00 0.00 0.00 0.00 0.00 0.00 0.00 0.00 0.01 0.07 0.30 0.38 0.42 0.49 0.64 0.69 0.71 0.59 0.46 0.41 0.35 0.32 0.33 0.40
1.28 0.60 0.42 0.39 0.19 0.04 0.03 0.00 0.11 0.13 0.09 0.06 0.04 0.02 0.00 0.00 0.00 0.00 0.00 0.00 0.00 0.00 0.00 0.00 0.00 0.00 0.00 0.00 0.00 0.04 0.20 0.26 0.32 0.49 0.56 0.67 0.55 0.46 0.37 0.36 0.49 0.51 0.53 0.55
0.73 0.67 0.71 0.42 0.09 0.04 0.01 0.01 0.21 0.11 0.13 0.10 0.00 0.00 0.00 0.00 0.00 0.00 0.00 0.00 0.00 0.00 0.00 0.00 0.00 0.00 0.00 0.00 0.00 0.00 0.05 0.08 0.12 0.18 0.28 0.38 0.31 0.32 0.34 0.32 0.34 0.33 0.31 0.28
1.28 1.07 0.60 0.28 0.08 0.05 0.00 0.04 0.37 0.32 0.33 0.09 0.00 0.00 0.00 0.00 0.00 0.00 0.00 0.00 0.00 0.00 0.00 0.00 0.00 0.00 0.00 0.00 0.00 0.00 0.00 0.02 0.05 0.17 0.21 0.27 0.21 0.20 0.24 0.28 0.29 0.22 0.18 0.13
1.28 1.58 0.77 0.35 0.07 0.05 0.01 0.03 0.12 0.07 0.04 0.01 0.00 0.00 0.00 0.00 0.00 0.00 0.00 0.00 0.00 0.00 0.00 0.00 0.00 0.00 0.00 0.00 0.00 0.00 0.00 0.00 0.01 0.06 0.12 0.22 0.26 0.24 0.24 0.27 0.21 0.17 0.14 0.13
0.38 0.72 0.35 0.20 0.06 0.05 0.11 0.12 0.04 0.16 0.10 0.12 0.02 0.00 0.00 0.00 0.00 0.00 0.00 0.00 0.00 0.00 0.00 0.00 0.00 0.00 0.00 0.00 0.00 0.00 0.00 0.00 0.01 0.03 0.07 0.07 0.09 0.17 0.17 0.17 0.14 0.14 0.13 0.13
0.02 0.29 0.24 0.15 0.12 0.06 0.02 0.03 0.11 0.25 0.15 0.06 0.00 0.00 0.00 0.00 0.00 0.00 0.00 0.00 0.00 0.00 0.00 0.00 0.00 0.00 0.00 0.00 0.00 0.00 0.00 0.02 0.03 0.06 0.10 0.03 0.05 0.07 0.08 0.08 0.06 0.06 0.09 0.10
0.00 0.08 0.21 0.22 0.25 0.10 0.02 0.09 0.12 0.17 0.14 0.09 0.03 0.00 0.00 0.00 0.00 0.00 0.00 0.00 0.00 0.00 0.00 0.00 0.00 0.00 0.00 0.00 0.00 0.00 0.01 0.04 0.06 0.05 0.03 0.02 0.04 0.06 0.07 0.07 0.05 0.05 0.07 0.07
0.00 0.04 0.09 0.13 0.03 0.01 0.02 0.01 0.04 0.23 0.09 0.13 0.06 0.03 0.00 0.00 0.00 0.00 0.00 0.00 0.00 0.00 0.00 0.00 0.00 0.00 0.00 0.00 0.00 0.00 0.05 0.07 0.03 0.02 0.02 0.02 0.03 0.04 0.05 0.05 0.07 0.07 0.07 0.05
0.00 0.05 0.11 0.18 0.15 0.06 0.06 0.02 0.10 0.21 0.39 0.25 0.12 0.03 0.00 0.00 0.00 0.00 0.00 0.00 0.00 0.00 0.00 0.02 0.00 0.00 0.01 0.02 0.07 0.12 0.10 0.03 0.04 0.04 0.03 0.03 0.04 0.05 0.06 0.06 0.06 0.06 0.06 0.06
0.01 0.03 0.02 0.06 0.09 0.20 0.18 0.03 0.10 0.42 0.55 0.09 0.04 0.00 0.00 0.00 0.00 0.01 0.01 0.01 0.01 0.00 0.00 0.00 0.01 0.00 0.06 0.15 0.25 0.15 0.12 0.10 0.10 0.09 0.07 0.08 0.07 0.08 0.07 0.07 0.06 0.05 0.05 0.05
0.04 0.05 0.02 0.02 0.06 0.22 0.20 0.08 0.07 0.32 0.17 0.23 0.06 0.00 0.00 0.00 0.00 0.01 0.01 0.00 0.00 0.01 0.00 0.00 0.01 0.01 0.05 0.19 0.18 0.17 0.20 0.19 0.16 0.15 0.12 0.07 0.06 0.08 0.07 0.06 0.07 0.05 0.05 0.04
0.05 0.09 0.06 0.06 0.05 0.10 0.16 0.04 0.06 0.06 0.02 0.02 0.01 0.00 0.01 0.00 0.01 0.06 0.03 0.01 0.01 0.00 0.00 0.00 0.00 0.00 0.02 0.08 0.15 0.15 0.19 0.17 0.10 0.10 0.09 0.07 0.05 0.06 0.08 0.09 0.09 0.09 0.09 0.10
0.06 0.08 0.15 0.07 0.04 0.11 0.13 0.04 0.02 0.01 0.00 0.01 0.01 0.01 0.01 0.07 0.18 0.16 0.03 0.01 0.00 0.00 0.00 0.00 0.00 0.00 0.02 0.11 0.19 0.61 0.74 0.37 0.09 0.21 0.16 0.12 0.08 0.09 0.12 0.14 0.16 0.14 0.12 0.15
0.02 0.06 0.19 0.09 0.09 0.24 0.13 0.02 0.00 0.00 0.00 0.00 0.01 0.01 0.04 0.16 0.27 0.07 0.01 0.01 0.00 0.00 0.00 0.00 0.00 0.00 0.02 0.13 0.53 0.65 0.86 0.35 0.16 0.29 0.47 0.52 0.47 0.39 0.39 0.41 0.40 0.32 0.30 0.29
0.01 0.06 0.18 0.16 0.17 0.09 0.01 0.00 0.00 0.00 0.00 0.00 0.03 0.01 0.02 0.07 0.07 0.03 0.01 0.01 0.01 0.01 0.01 0.01 0.00 0.00 0.01 0.08 0.30 0.32 0.47 0.53 0.56 0.85 0.84 0.80 0.66 0.62 0.87 1.01 0.86 0.75 0.73 0.68
0.02 0.03 0.16 0.10 0.09 0.01 0.01 0.00 0.00 0.02 0.01 0.00 0.04 0.03 0.01 0.02 0.03 0.04 0.00 0.01 0.01 0.01 0.00 0.00 0.01 0.02 0.03 0.06 0.22 0.56 0.97 0.79 0.72 0.81 0.97 0.89 0.78 0.64 0.75 0.70 0.76 0.71 0.63 0.68
0.07 0.10 0.15 0.14 0.15 0.00 0.00 0.00 0.00 0.00 0.01 0.00 0.02 0.05 0.01 0.01 0.00 0.03 0.09 0.07 0.04 0.02 0.03 0.04 0.05 0.14 0.19 0.29 0.61 0.84 0.99 0.90 0.89 0.92 0.79 0.66 0.55 0.71 0.67 0.69 0.53 0.61 0.53 0.41
0.02 0.04 0.06 0.07 0.09 0.01 0.00 0.00 0.00 0.00 0.00 0.00 0.00 0.04 0.04 0.00 0.00 0.00 0.02 0.08 0.10 0.14 0.19 0.07 0.22 0.66 0.79 0.59 0.55 0.45 0.50 0.47 0.26 0.37 0.34 0.37 0.26 0.32 0.42 0.27 0.25 0.23 0.19 0.13
0.00 0.00 0.00 0.00 0.00 0.00 0.00 0.00 0.00 0.00 0.00 0.00 0.01 0.01 0.01 0.02 0.05 0.04 0.01 0.01 0.02 0.04 0.07 0.01 0.07 0.12 0.09 0.04 0.01 0.03 0.05 0.05 0.00 0.00 0.00 0.00 0.00 0.00 0.01 0.00 0.00 0.00 0.00 0.00
0.00 0.00 0.00 0.00 0.00 0.00 0.00 0.00 0.00 0.00 0.00 0.00 0.02 0.02 0.00 0.00 0.00 0.00 0.00 0.00 0.00 0.00 0.00 0.00 0.00 0.00 0.00 0.00 0.00 0.00 0.00 0.00 0.00 0.00 0.00 0.00 0.00 0.00 0.00 0.00 0.00 0.00 0.00 0.00
0.01 0.00 0.00 0.00 0.00 0.00 0.00 0.00 0.00 0.00 0.00 0.00 0.00 0.00 0.00 0.00 0.00 0.00 0.00 0.00 0.00 0.01 0.04 0.07 0.09 0.09 0.05 0.01 0.01 0.01 0.01 0.02 0.03 0.02 0.02 0.01 0.01 0.00 0.00 0.00 0.00 0.00 0.00 0.00
0.00 0.00 0.00 0.00 0.00 0.00 0.00 0.00 0.00 0.00 0.00 0.00 0.00 0.00 0.00 0.00 0.00 0.00 0.00 0.00 0.00 0.00 0.00 0.01 0.06 0.12 0.19 0.19 0.17 0.12 0.08 0.07 0.05 0.05 0.03 0.02 0.01 0.00 0.00 0.00 0.00 0.00 0.00 0.00

GFSCGP_prec_precacc_072.txt.gz
Total_Precipitation_Accumulation
2.85 1.81 0.59 0.40 0.31 0.03 0.01 0.08 0.48 0.40 0.43 0.40 0.52 0.40 0.17 0.03 0.04 0.04 0.01 0.00 0.01 0.04 0.06 0.11 0.15 0.19 0.18 0.24 0.50 0.37 0.33 0.28 0.28 0.33 0.24 0.31 0.21 0.26 0.26 0.24 0.28 0.31 0.22 0.21
2.13 0.96 0.26 0.28 0.19 0.05 0.04 0.05 0.41 0.52 0.36 0.33 0.34 0.46 0.28 0.11 0.01 0.01 0.01 0.00 0.00 0.00 0.00 0.01 0.03 0.04 0.05 0.22 0.66 0.53 0.40 0.36 0.13 0.13 0.17 0.25 0.35 0.29 0.21 0.26 0.17 0.17 0.15 0.16
1.15 0.44 0.32 0.39 0.26 0.10 0.04 0.01 0.16 0.47 0.39 0.26 0.23 0.25 0.33 0.17 0.04 0.00 0.00 0.00 0.00 0.00 0.00 0.00 0.00 0.00 0.01 0.05 0.21 0.25 0.21 0.33 0.52 0.57 0.73 0.65 0.66 0.47 0.35 0.23 0.10 0.09 0.15 0.21
1.40 0.43 0.30 0.40 0.44 0.06 0.01 0.00 0.03 0.17 0.15 0.18 0.09 0.08 0.08 0.11 0.08 0.01 0.00 0.00 0.00 0.00 0.00 0.00 0.00 0.00 0.00 0.00 0.02 0.10 0.41 0.57 0.74 0.81 1.05 1.15 1.09 0.96 0.84 0.73 0.56 0.44 0.38 0.42
1.30 0.60 0.42 0.41 0.44 0.16 0.04 0.01 0.11 0.13 0.09 0.07 0.05 0.03 0.00 0.01 0.02 0.02 0.00 0.00 0.00 0.00 0.00 0.00 0.00 0.00 0.00 0.00 0.00 0.04 0.21 0.31 0.36 0.53 0.59 0.74 0.65 0.55 0.54 0.57 0.71 0.71 0.70 0.68
0.74 0.67 0.71 0.60 0.34 0.07 0.01 0.01 0.23 0.12 0.13 0.11 0.01 0.01 0.00 0.00 0.00 0.00 0.00 0.00 0.00 0.00 0.00 0.00 0.00 0.00 0.00 0.00 0.00 0.00 0.05 0.08 0.16 0.26 0.35 0.45 0.42 0.46 0.46 0.40 0.42 0.42 0.38 0.37
1.28 1.07 0.64 0.41 0.12 0.06 0.01 0.06 0.49 0.40 0.43 0.12 0.00 0.00 0.00 0.00 0.00 0.00 0.00 0.00 0.00 0.00 0.00 0.00 0.00 0.00 0.00 0.00 0.00 0.00 0.00 0.02 0.07 0.22 0.26 0.34 0.31 0.27 0.30 0.38 0.40 0.37 0.29 0.24
1.28 1.59 0.79 0.36 0.08 0.05 0.01 0.03 0.13 0.08 0.08 0.06 0.01 0.00 0.00 0.00 0.00 0.00 0.00 0.00 0.00 0.00 0.00 0.00 0.00 0.00 0.00 0.00 0.00 0.00 0.00 0.00 0.01 0.07 0.13 0.22 0.26 0.25 0.29 0.36 0.31 0.29 0.28 0.30
0.40 0.81 0.39 0.20 0.06 0.05 0.11 0.12 0.04 0.16 0.10 0.14 0.03 0.00 0.00 0.00 0.00 0.00 0.00 0.00 0.00 0.00 0.00 0.00 0.00 0.00 0.00 0.00 0.00 0.00 0.00 0.00 0.01 0.03 0.07 0.07 0.09 0.17 0.18 0.19 0.19 0.21 0.22 0.21
0.04 0.33 0.24 0.15 0.12 0.06 0.02 0.03 0.11 0.25 0.15 0.06 0.00 0.00 0.00 0.00 0.00 0.00 0.00 0.00 0.00 0.00 0.00 0.00 0.00 0.00 0.00 0.00 0.00 0.00 0.00 0.02 0.03 0.06 0.10 0.03 0.05 0.07 0.08 0.08 0.08 0.09 0.12 0.11
0.00 0.09 0.25 0.22 0.25 0.10 0.02 0.09 0.12 0.17 0.14 0.09 0.03 0.00 0.00 0.00 0.00 0.00 0.00 0.00 0.00 0.00 0.00 0.00 0.00 0.00 0.00 0.00 0.00 0.00 0.01 0.04 0.06 0.05 0.03 0.02 0.04 0.06 0.07 0.07 0.05 0.05 0.07 0.07
0.00 0.04 0.09 0.13 0.03 0.01 0.02 0.01 0.04 0.23 0.09 0.13 0.06 0.03 0.00 0.00 0.00 0.00 0.00 0.00 0.00 0.00 0.00 0.00 0.00 0.00 0.00 0.00 0.00 0.00 0.05 0.07 0.03 0.02 0.02 0.02 0.03 0.04 0.05 0.05 0.07 0.07 0.07 0.05
0.00 0.05 0.11 0.18 0.15 0.06 0.06 0.02 0.10 0.21 0.39 0.25 0.12 0.03 0.00 0.00 0.00 0.00 0.00 0.00 0.00 0.00 0.00 0.02 0.00 0.00 0.01 0.02 0.07 0.12 0.10 0.03 0.04 0.04 0.03 0.03 0.04 0.05 0.06 0.06 0.06 0.06 0.06 0.06
0.01 0.03 0.02 0.06 0.09 0.20 0.18 0.03 0.10 0.42 0.55 0.09 0.04 0.00 0.00 0.00 0.00 0.01 0.01 0.01 0.01 0.00 0.00 0.00 0.01 0.00 0.06 0.15 0.25 0.15 0.12 0.10 0.10 0.09 0.07 0.08 0.07 0.08 0.07 0.07 0.06 0.05 0.05 0.05
0.04 0.05 0.02 0.02 0.06 0.22 0.20 0.08 0.07 0.32 0.17 0.23 0.06 0.00 0.00 0.00 0.00 0.01 0.01 0.00 0.00 0.01 0.00 0.00 0.01 0.01 0.05 0.19 0.18 0.17 0.20 0.19 0.16 0.15 0.12 0.07 0.06 0.08 0.07 0.06 0.07 0.05 0.05 0.04
0.05 0.09 0.06 0.06 0.05 0.10 0.16 0.04 0.06 0.06 0.02 0.02 0.01 0.00 0.01 0.00 0.01 0.06 0.03 0.01 0.01 0.00 0.00 0.00 0.00 0.00 0.02 0.08 0.15 0.15 0.19 0.17 0.10 0.10 0.09 0.07 0.05 0.06 0.08 0.09 0.09 0.09 0.09 0.10
0.06 0.08 0.15 0.07 0.04 0.11 0.13 0.04 0.02 0.01 0.00 0.01 0.01 0.01 0.01 0.07 0.18 0.16 0.03 0.01 0.00 0.00 0.00 0.00 0.00 0.00 0.02 0.11 0.19 0.61 0.74 0.37 0.09 0.21 0.16 0.12 0.08 0.09 0.12 0.14 0.16 0.14 0.12 0.15
0.02 0.06 0.19 0.09 0.09 0.24 0.13 0.02 0.00 0.00 0.00 0.00 0.01 0.01 0.04 0.16 0.27 0.07 0.01 0.01 0.00 0.00 0.00 0.00 0.00 0.00 0.02 0.13 0.53 0.65 0.86 0.35 0.16 0.29 0.47 0.52 0.47 0.39 0.39 0.41 0.40 0.32 0.30 0.29
0.01 0.06 0.18 0.16 0.17 0.09 0.01 0.00 0.00 0.00 0.00 0.00 0.03 0.01 0.02 0.07 0.07 0.03 0.01 0.01 0.01 0.01 0.01 0.01 0.00 0.00 0.01 0.08 0.30 0.32 0.47 0.53 0.56 0.85 0.84 0.80 0.66 0.62 0.87 1.01 0.86 0.75 0.73 0.68
0.02 0.03 0.16 0.10 0.09 0.01 0.01 0.00 0.00 0.02 0.01 0.00 0.04 0.03 0.01 0.02 0.03 0.04 0.00 0.01 0.01 0.01 0.00 0.00 0.01 0.02 0.03 0.06 0.22 0.56 0.97 0.79 0.72 0.81 0.97 0.89 0.78 0.64 0.75 0.70 0.76 0.71 0.63 0.68
0.07 0.10 0.15 0.14 0.15 0.00 0.00 0.00 0.00 0.00 0.01 0.00 0.02 0.05 0.01 0.01 0.00 0.03 0.09 0.07 0.04 0.02 0.03 0.04 0.05 0.14 0.19 0.29 0.61 0.84 0.99 0.90 0.89 0.92 0.79 0.66 0.55 0.71 0.67 0.69 0.53 0.61 0.53 0.41
0.02 0.04 0.06 0.07 0.09 0.01 0.00 0.00 0.00 0.00 0.00 0.00 0.00 0.04 0.04 0.00 0.00 0.00 0.02 0.08 0.10 0.14 0.19 0.07 0.22 0.66 0.79 0.59 0.55 0.45 0.50 0.47 0.26 0.37 0.34 0.37 0.26 0.32 0.42 0.27 0.25 0.23 0.19 0.13
0.00 0.00 0.00 0.00 0.00 0.00 0.00 0.00 0.00 0.00 0.00 0.00 0.01 0.01 0.01 0.02 0.05 0.04 0.01 0.01 0.02 0.04 0.07 0.01 0.07 0.12 0.09 0.04 0.01 0.03 0.05 0.05 0.00 0.00 0.00 0.00 0.00 0.00 0.01 0.00 0.00 0.00 0.00 0.00
0.00 0.00 0.00 0.00 0.00 0.00 0.00 0.00 0.00 0.00 0.00 0.00 0.02 0.02 0.00 0.00 0.00 0.00 0.00 0.00 0.00 0.00 0.00 0.00 0.00 0.00 0.00 0.00 0.00 0.00 0.00 0.00 0.00 0.00 0.00 0.00 0.00 0.00 0.00 0.00 0.00 0.00 0.00 0.00
0.01 0.00 0.00 0.00 0.00 0.00 0.00 0.00 0.00 0.00 0.00 0.00 0.00 0.00 0.00 0.00 0.00 0.00 0.00 0.00 0.00 0.01 0.04 0.07 0.09 0.09 0.05 0.01 0.01 0.01 0.01 0.02 0.03 0.02 0.02 0.01 0.01 0.00 0.00 0.00 0.00 0.00 0.00 0.00
0.00 0.00 0.00 0.00 0.00 0.00 0.00 0.00 0.00 0.00 0.00 0.00 0.00 0.00 0.00 0.00 0.00 0.00 0.00 0.00 0.00 0.00 0.00 0.01 0.06 0.12 0.19 0.19 0.17 0.12 0.08 0.07 0.05 0.05 0.03 0.04 0.02 0.02 0.02 0.01 0.00 0.00 0.00 0.01

GFSCGP_prec_precacc_075.txt.gz
Total_Precipitation_Accumulation
2.86 1.83 0.62 0.41 0.51 0.24 0.05 0.09 0.49 0.45 0.45 0.49 0.81 0.60 0.19 0.06 0.09 0.07 0.03 0.02 0.06 0.14 0.20 0.28 0.29 0.37 0.43 0.37 0.53 0.40 0.35 0.28 0.28 0.34 0.25 0.32 0.24 0.28 0.28 0.25 0.35 0.43 0.40 0.31
2.14 0.98 0.26 0.32 0.61 0.17 0.04 0.06 0.44 0.61 0.54 0.53 0.50 0.72 0.34 0.12 0.04 0.04 0.02 0.02 0.01 0.02 0.03 0.07 0.10 0.16 0.19 0.40 0.87 0.76 0.51 0.46 0.21 0.23 0.22 0.26 0.37 0.32 0.22 0.28 0.23 0.32 0.37 0.35
1.17 0.44 0.33 0.44 0.62 0.17 0.04 0.01 0.18 0.65 0.63 0.47 0.35 0.43 0.44 0.20 0.06 0.03 0.02 0.02 0.01 0.01 0.01 0.00 0.01 0.03 0.04 0.14 0.32 0.34 0.25 0.42 0.69 0.66 0.94 0.83 0.81 0.60 0.51 0.40 0.27 0.30 0.34 0.37
1.41 0.44 0.30 0.40 0.46 0.10 0.02 0.00 0.03 0.24 0.24 0.30 0.20 0.22 0.14 0.15 0.13 0.03 0.03 0.02 0.01 0.00 0.00 0.00 0.00 0.00 0.00 0.01 0.06 0.20 0.57 0.81 0.94 1.06 1.41 1.85 1.98 1.74 1.40 1.26 1.01 0.84 0.70 0.72
1.32 0.62 0.42 0.41 0.44 0.16 0.05 0.01 0.11 0.13 0.10 0.11 0.11 0.07 0.02 0.05 0.09 0.07 0.02 0.03 0.02 0.01 0.00 0.00 0.00 0.00 0.00 0.00 0.00 0.04 0.22 0.34 0.54 0.78 0.82 0.98 0.89 0.81 0.79 0.76 0.85 0.86 0.88 0.92
0.76 0.67 0.71 0.64 0.46 0.07 0.02 0.02 0.23 0.12 0.14 0.15 0.06 0.01 0.00 0.00 0.03 0.08 0.05 0.01 0.00 0.00 0.00 0.00 0.00 0.00 0.00 0.00 0.00 0.00 0.05 0.09 0.19 0.31 0.42 0.60 0.62 0.65 0.64 0.54 0.51 0.53 0.47 0.44
1.29 1.07 0.69 0.67 0.21 0.08 0.01 0.06 0.52 0.44 0.46 0.18 0.03 0.00 0.00 0.00 0.00 0.03 0.04 0.02 0.00 0.00 0.00 0.00 0.00 0.00 0.00 0.00 0.00 0.00 0.00 0.02 0.07 0.22 0.27 0.36 0.37 0.33 0.37 0.46 0.46 0.47 0.41 0.31
1.29 1.63 0.87 0.46 0.12 0.09 0.04 0.04 0.13 0.10 0.10 0.13 0.02 0.00 0.00 0.00 0.00 0.00 0.00 0.01 0.01 0.00 0.00 0.00 0.00 0.00 0.00 0.00 0.00 0.00 0.00 0.00 0.01 0.07 0.13 0.22 0.26 0.25 0.29 0.37 0.33 0.30 0.32 0.37
0.41 0.84 0.40 0.21 0.06 0.05 0.12 0.12 0.04 0.16 0.11 0.17 0.06 0.00 0.00 0.00 0.00 0.00 0.00 0.00 0.00 0.00 0.00 0.00 0.00 0.00 0.00 0.00 0.00 0.00 0.00 0.00 0.01 0.03 0.07 0.07 0.09 0.17 0.18 0.19 0.19 0.21 0.23 0.27
0.04 0.35 0.25 0.15 0.12 0.06 0.02 0.03 0.11 0.25 0.15 0.07 0.01 0.00 0.00 0.00 0.00 0.00 0.00 0.00 0.00 0.00 0.00 0.00 0.00 0.00 0.00 0.00 0.00 0.00 0.00 0.02 0.03 0.06 0.10 0.03 0.05 0.07 0.08 0.08 0.08 0.09 0.13 0.12
0.00 0.09 0.26 0.22 0.25 0.10 0.02 0.09 0.12 0.17 0.14 0.09 0.03 0.00 0.00 0.00 0.00 0.00 0.00 0.00 0.00 0.00 0.00 0.00 0.00 0.00 0.00 0.00 0.00 0.00 0.01 0.04 0.06 0.05 0.03 0.02 0.04 0.06 0.07 0.07 0.05 0.05 0.07 0.07
0.00 0.04 0.09 0.13 0.03 0.01 0.02 0.01 0.04 0.23 0.09 0.13 0.06 0.03 0.00 0.00 0.00 0.00 0.00 0.00 0.00 0.00 0.00 0.00 0.00 0.00 0.00 0.00 0.00 0.00 0.05 0.07 0.03 0.02 0.02 0.02 0.03 0.04 0.05 0.05 0.07 0.07 0.07 0.05
0.00 0.05 0.11 0.18 0.15 0.06 0.06 0.02 0.10 0.21 0.39 0.25 0.12 0.03 0.00 0.00 0.00 0.00 0.00 0.00 0.00 0.00 0.00 0.02 0.00 0.00 0.01 0.02 0.07 0.12 0.10 0.03 0.04 0.04 0.03 0.03 0.04 0.05 0.06 0.06 0.06 0.06 0.06 0.06
0.01 0.03 0.02 0.06 0.09 0.20 0.18 0.03 0.10 0.42 0.55 0.09 0.04 0.00 0.00 0.00 0.00 0.01 0.01 0.01 0.01 0.00 0.00 0.00 0.01 0.00 0.06 0.15 0.25 0.15 0.12 0.10 0.10 0.09 0.07 0.08 0.07 0.08 0.07 0.07 0.06 0.05 0.05 0.05
0.04 0.05 0.02 0.02 0.06 0.22 0.20 0.08 0.07 0.32 0.17 0.23 0.06 0.00 0.00 0.00 0.00 0.01 0.01 0.00 0.00 0.01 0.00 0.00 0.01 0.01 0.05 0.19 0.18 0.17 0.20 0.19 0.16 0.15 0.12 0.07 0.06 0.08 0.07 0.06 0.07 0.05 0.05 0.04
0.05 0.09 0.06 0.06 0.05 0.10 0.16 0.04 0.06 0.06 0.02 0.02 0.01 0.00 0.01 0.00 0.01 0.06 0.03 0.01 0.01 0.00 0.00 0.00 0.00 0.00 0.02 0.08 0.15 0.15 0.19 0.17 0.10 0.10 0.09 0.07 0.05 0.06 0.08 0.09 0.09 0.09 0.09 0.10
0.06 0.08 0.15 0.07 0.04 0.11 0.13 0.04 0.02 0.01 0.00 0.01 0.01 0.01 0.01 0.07 0.18 0.16 0.03 0.01 0.00 0.00 0.00 0.00 0.00 0.00 0.02 0.11 0.19 0.61 0.74 0.37 0.09 0.21 0.16 0.12 0.08 0.09 0.12 0.14 0.16 0.14 0.12 0.15
0.02 0.06 0.19 0.09 0.09 0.24 0.13 0.02 0.00 0.00 0.00 0.00 0.01 0.01 0.04 0.16 0.27 0.07 0.01 0.01 0.00 0.00 0.00 0.00 0.00 0.00 0.02 0.13 0.53 0.65 0.86 0.35 0.16 0.29 0.47 0.52 0.47 0.39 0.39 0.41 0.40 0.32 0.30 0.29
0.01 0.06 0.18 0.16 0.17 0.09 0.01 0.00 0.00 0.00 0.00 0.00 0.03 0.01 0.02 0.07 0.07 0.03 0.01 0.01 0.01 0.01 0.01 0.01 0.00 0.00 0.01 0.08 0.30 0.32 0.47 0.53 0.56 0.85 0.84 0.80 0.66 0.62 0.87 1.01 0.86 0.75 0.73 0.68
0.02 0.03 0.16 0.10 0.09 0.01 0.01 0.00 0.00 0.02 0.01 0.00 0.04 0.03 0.01 0.02 0.03 0.04 0.00 0.01 0.01 0.01 0.00 0.00 0.01 0.02 0.03 0.06 0.22 0.56 0.97 0.79 0.72 0.81 0.97 0.89 0.78 0.64 0.75 0.70 0.76 0.71 0.63 0.68
0.07 0.10 0.15 0.14 0.15 0.00 0.00 0.00 0.00 0.00 0.01 0.00 0.02 0.05 0.01 0.01 0.00 0.03 0.09 0.07 0.04 0.02 0.03 0.04 0.05 0.14 0.19 0.29 0.61 0.84 0.99 0.90 0.89 0.92 0.79 0.66 0.55 0.71 0.67 0.69 0.53 0.61 0.53 0.41
0.02 0.04 0.06 0.07 0.09 0.01 0.00 0.00 0.00 0.00 0.00 0.00 0.00 0.04 0.04 0.00 0.00 0.00 0.02 0.08 0.10 0.14 0.19 0.07 0.22 0.66 0.79 0.59 0.55 0.45 0.50 0.47 0.26 0.37 0.34 0.37 0.26 0.32 0.42 0.27 0.25 0.23 0.19 0.13
0.00 0.00 0.00 0.00 0.00 0.00 0.00 0.00 0.00 0.00 0.00 0.00 0.01 0.01 0.01 0.02 0.05 0.04 0.01 0.01 0.02 0.04 0.07 0.01 0.07 0.12 0.09 0.04 0.01 0.03 0.05 0.05 0.00 0.00 0.00 0.00 0.00 0.00 0.01 0.00 0.00 0.00 0.00 0.00
0.00 0.00 0.00 0.00 0.00 0.00 0.00 0.00 0.00 0.00 0.00 0.00 0.02 0.02 0.00 0.00 0.00 0.00 0.00 0.00 0.00 0.00 0.00 0.00 0.00 0.00 0.00 0.00 0.00 0.00 0.00 0.00 0.00 0.00 0.00 0.00 0.00 0.00 0.00 0.00 0.00 0.00 0.00 0.00
0.01 0.00 0.00 0.00 0.00 0.00 0.00 0.00 0.00 0.00 0.00 0.00 0.00 0.00 0.00 0.00 0.00 0.00 0.00 0.00 0.00 0.01 0.04 0.07 0.09 0.09 0.05 0.01 0.01 0.01 0.01 0.02 0.03 0.02 0.02 0.01 0.01 0.01 0.01 0.01 0.02 0.01 0.00 0.01
0.00 0.00 0.00 0.00 0.00 0.00 0.00 0.00 0.00 0.00 0.00 0.00 0.00 0.00 0.00 0.00 0.00 0.00 0.00 0.00 0.00 0.00 0.00 0.01 0.06 0.12 0.19 0.19 0.17 0.12 0.08 0.07 0.05 0.05 0.03 0.04 0.02 0.02 0.03 0.03 0.04 0.06 0.04 0.04

GFSCGP_prec_precacc_081.txt.gz
Total_Precipitation_Accumulation
2.95 1.88 0.64 0.44 0.56 0.34 0.34 0.28 0.58 0.54 0.52 0.52 0.90 0.67 0.23 0.08 0.10 0.08 0.04 0.05 0.19 0.45 0.99 1.17 0.68 0.48 0.50 0.43 0.56 0.44 0.39 0.33 0.33 0.41 0.39 0.50 0.41 0.46 0.41 0.31 0.39 0.47 0.48 0.42
2.18 1.00 0.26 0.34 0.64 0.28 0.20 0.16 0.61 0.81 0.68 0.59 0.55 0.85 0.42 0.14 0.07 0.07 0.05 0.05 0.14 0.24 0.69 1.07 1.28 0.56 0.49 1.07 1.34 1.01 0.72 0.67 0.36 0.36 0.37 0.35 0.50 0.44 0.28 0.30 0.24 0.33 0.39 0.44
1.20 0.45 0.35 0.54 0.88 0.29 0.12 0.05 0.37 0.98 0.82 0.56 0.42 0.54 0.64 0.24 0.11 0.07 0.06 0.04 0.08 0.15 0.22 0.52 1.11 0.73 0.53 1.12 1.30 0.93 0.81 0.79 0.87 0.72 1.12 1.01 1.01 0.77 0.67 0.48 0.29 0.33 0.35 0.42
1.42 0.45 0.34 0.53 0.91 0.20 0.13 0.08 0.17 0.55 0.42 0.38 0.28 0.40 0.41 0.30 0.20 0.12 0.14 0.07 0.07 0.10 0.12 0.20 0.37 0.47 0.38 0.32 0.36 0.63 1.20 1.24 1.22 1.24 1.74 2.18 2.39 2.22 1.87 1.62 1.27 1.02 0.88 0.94
1.38 0.65 0.47 0.54 0.65 0.26 0.21 0.08 0.21 0.25 0.17 0.14 0.20 0.23 0.20 0.23 0.22 0.25 0.22 0.13 0.10 0.05 0.15 0.16 0.19 0.14 0.10 0.07 0.09 0.17 0.41 0.55 0.83 1.12 1.21 1.50 1.42 1.36 1.26 1.16 1.21 1.23 1.30 1.25
0.78 0.68 0.73 0.67 0.47 0.11 0.10 0.06 0.27 0.16 0.20 0.27 0.20 0.09 0.13 0.19 0.17 0.31 0.22 0.12 0.08 0.02 0.05 0.17 0.05 0.01 0.00 0.00 0.00 0.01 0.08 0.15 0.36 0.48 0.58 0.98 1.21 1.26 1.20 0.94 0.88 0.84 0.75 0.76
1.30 1.11 0.86 0.76 0.34 0.19 0.05 0.11 0.58 0.52 0.57 0.41 0.17 0.04 0.07 0.09 0.03 0.19 0.25 0.11 0.05 0.06 0.02 0.07 0.05 0.01 0.00 0.00 0.00 0.00 0.00 0.02 0.09 0.27 0.37 0.52 0.54 0.57 0.49 0.53 0.52 0.50 0.46 0.39
1.36 1.82 1.10 0.56 0.22 0.12 0.08 0.07 0.16 0.15 0.18 0.29 0.07 0.07 0.08 0.06 0.04 0.10 0.12 0.10 0.06 0.12 0.05 0.04 0.01 0.01 0.00 0.00 0.00 0.00 0.00 0.00 0.01 0.07 0.13 0.24 0.33 0.35 0.38 0.44 0.37 0.34 0.35 0.40
0.54 1.10 0.57 0.27 0.07 0.06 0.12 0.12 0.04 0.17 0.14 0.20 0.09 0.02 0.01 0.01 0.02 0.02 0.02 0.08 0.08 0.07 0.10 0.02 0.02 0.00 0.00 0.00 0.00 0.00 0.00 0.00 0.01 0.03 0.07 0.07 0.09 0.17 0.21 0.22 0.20 0.21 0.24 0.31
0.14 0.49 0.28 0.16 0.12 0.06 0.02 0.03 0.11 0.25 0.16 0.09 0.03 0.00 0.00 0.00 0.01 0.03 0.03 0.07 0.07 0.06 0.03 0.01 0.00 0.00 0.00 0.00 0.00 0.00 0.00 0.02 0.03 0.06 0.10 0.03 0.05 0.07 0.08 0.08 0.08 0.09 0.13 0.12
0.01 0.11 0.27 0.22 0.25 0.10 0.02 0.09 0.12 0.17 0.14 0.09 0.03 0.00 0.00 0.00 0.00 0.00 0.01 0.03 0.02 0.02 0.01 0.00 0.00 0.00 0.00 0.00 0.00 0.00 0.01 0.04 0.06 0.05 0.03 0.02 0.04 0.06 0.07 0.07 0.05 0.05 0.07 0.07
0.00 0.04 0.09 0.13 0.03 0.01 0.02 0.01 0.04 0.23 0.09 0.13 0.06 0.03 0.00 0.00 0.00 0.00 0.00 0.00 0.00 0.00 0.00 0.00 0.00 0.00 0.00 0.00 0.00 0.00 0.05 0.07 0.03 0.02 0.02 0.02 0.03 0.04 0.05 0.05 0.07 0.07 0.07 0.05
0.00 0.05 0.11 0.18 0.15 0.06 0.06 0.02 0.10 0.21 0.39 0.25 0.12 0.03 0.00 0.00 0.00 0.00 0.00 0.00 0.00 0.00 0.00 0.02 0.00 0.00 0.01 0.02 0.07 0.12 0.10 0.03 0.04 0.04 0.03 0.03 0.04 0.05 0.06 0.06 0.06 0.06 0.06 0.06
0.01 0.03 0.03 0.06 0.09 0.20 0.18 0.03 0.10 0.42 0.55 0.09 0.04 0.00 0.00 0.00 0.00 0.01 0.01 0.01 0.01 0.00 0.00 0.00 0.01 0.00 0.06 0.15 0.25 0.15 0.12 0.10 0.10 0.09 0.07 0.08 0.07 0.08 0.07 0.07 0.06 0.05 0.05 0.05
0.04 0.05 0.02 0.02 0.06 0.22 0.20 0.08 0.07 0.32 0.17 0.23 0.06 0.00 0.00 0.00 0.00 0.01 0.01 0.00 0.00 0.01 0.00 0.00 0.01 0.01 0.05 0.19 0.18 0.17 0.20 0.19 0.16 0.15 0.12 0.07 0.06 0.08 0.07 0.06 0.07 0.05 0.05 0.04
0.05 0.09 0.06 0.06 0.05 0.10 0.16 0.04 0.06 0.06 0.02 0.02 0.01 0.00 0.01 0.00 0.01 0.06 0.03 0.01 0.01 0.00 0.00 0.00 0.00 0.00 0.02 0.08 0.15 0.15 0.19 0.17 0.10 0.10 0.09 0.07 0.05 0.06 0.08 0.09 0.09 0.09 0.09 0.10
0.06 0.08 0.15 0.07 0.04 0.11 0.13 0.04 0.02 0.01 0.00 0.01 0.01 0.01 0.01 0.07 0.18 0.16 0.03 0.01 0.00 0.00 0.00 0.00 0.00 0.00 0.02 0.11 0.19 0.61 0.74 0.37 0.09 0.21 0.16 0.12 0.08 0.09 0.12 0.14 0.16 0.14 0.12 0.15
0.02 0.06 0.19 0.09 0.09 0.24 0.13 0.02 0.00 0.00 0.00 0.00 0.01 0.01 0.04 0.16 0.27 0.07 0.01 0.01 0.00 0.00 0.00 0.00 0.00 0.00 0.02 0.13 0.53 0.65 0.86 0.35 0.16 0.29 0.47 0.52 0.47 0.39 0.39 0.41 0.40 0.32 0.30 0.29
0.01 0.06 0.18 0.16 0.17 0.09 0.01 0.00 0.00 0.00 0.00 0.00 0.03 0.01 0.02 0.07 0.07 0.03 0.01 0.01 0.01 0.01 0.01 0.01 0.00 0.00 0.01 0.08 0.30 0.32 0.47 0.53 0.56 0.85 0.84 0.80 0.66 0.62 0.87 1.01 0.86 0.75 0.73 0.68
0.02 0.03 0.16 0.10 0.09 0.01 0.01 0.00 0.00 0.02 0.01 0.00 0.04 0.03 0.01 0.02 0.03 0.04 0.00 0.01 0.01 0.01 0.00 0.00 0.01 0.02 0.03 0.06 0.22 0.56 0.97 0.79 0.72 0.81 0.97 0.89 0.78 0.64 0.75 0.70 0.76 0.71 0.63 0.68
0.07 0.10 0.15 0.14 0.15 0.00 0.00 0.00 0.00 0.00 0.01 0.00 0.02 0.05 0.01 0.01 0.00 0.03 0.09 0.07 0.04 0.02 0.03 0.04 0.05 0.14 0.19 0.29 0.61 0.84 0.99 0.90 0.89 0.92 0.79 0.66 0.55 0.71 0.67 0.69 0.53 0.61 0.53 0.41
0.02 0.04 0.06 0.07 0.09 0.01 0.00 0.00 0.00 0.00 0.00 0.00 0.00 0.04 0.04 0.00 0.00 0.00 0.02 0.08 0.10 0.14 0.19 0.07 0.22 0.66 0.79 0.59 0.55 0.45 0.50 0.47 0.26 0.37 0.34 0.37 0.26 0.32 0.42 0.27 0.25 0.23 0.19 0.13
0.00 0.00 0.00 0.00 0.00 0.00 0.00 0.00 0.00 0.00 0.00 0.00 0.01 0.01 0.01 0.02 0.05 0.04 0.01 0.01 0.02 0.04 0.07 0.01 0.07 0.12 0.09 0.04 0.01 0.03 0.05 0.05 0.00 0.00 0.00 0.00 0.00 0.00 0.01 0.00 0.00 0.00 0.00 0.00
0.00 0.00 0.00 0.00 0.00 0.00 0.00 0.00 0.00 0.00 0.00 0.00 0.02 0.02 0.00 0.00 0.00 0.00 0.00 0.00 0.00 0.00 0.00 0.00 0.00 0.00 0.00 0.00 0.00 0.00 0.00 0.00 0.00 0.00 0.00 0.00 0.00 0.00 0.00 0.00 0.00 0.00 0.00 0.01
0.01 0.00 0.00 0.00 0.00 0.00 0.00 0.00 0.00 0.00 0.00 0.00 0.00 0.00 0.00 0.00 0.00 0.00 0.00 0.00 0.00 0.01 0.04 0.07 0.09 0.09 0.05 0.01 0.01 0.01 0.01 0.02 0.03 0.02 0.02 0.01 0.01 0.01 0.01 0.01 0.02 0.01 0.01 0.03
0.00 0.00 0.00 0.00 0.00 0.00 0.00 0.00 0.00 0.00 0.00 0.00 0.00 0.00 0.00 0.00 0.00 0.00 0.00 0.00 0.00 0.00 0.00 0.01 0.06 0.12 0.19 0.19 0.17 0.12 0.08 0.07 0.05 0.05 0.03 0.04 0.02 0.02 0.03 0.04 0.04 0.07 0.05 0.06

GFSCGP_prec_precacc_087.txt.gz
Total_Precipitation_Accumulation
2.98 1.91 0.65 0.44 0.57 0.34 0.35 0.29 0.60 0.54 0.54 0.61 0.93 0.67 0.24 0.16 0.20 0.18 0.07 0.05 0.21 0.49 1.00 1.20 0.79 0.64 0.75 0.68 0.71 0.49 0.41 0.36 0.39 0.56 0.52 0.62 0.73 1.08 1.01 0.85 0.68 0.58 0.59 0.52
2.21 1.02 0.27 0.34 0.66 0.31 0.22 0.20 0.63 0.83 0.70 0.68 0.62 0.86 0.43 0.17 0.16 0.15 0.16 0.12 0.20 0.43 0.82 1.19 1.57 0.74 0.65 1.30 1.51 1.12 0.81 0.76 0.50 0.62 0.62 0.50 0.66 0.74 0.75 0.85 0.76 0.69 0.63 0.58
1.21 0.46 0.40 0.56 0.91 0.34 0.14 0.08 0.39 1.19 0.90 0.60 0.48 0.58 0.69 0.27 0.15 0.12 0.13 0.12 0.22 0.41 0.44 0.92 1.68 1.21 1.06 1.49 1.56 1.28 1.20 1.02 1.05 0.96 1.30 1.12 1.08 0.91 0.86 0.71 0.75 0.87 0.75 0.65
1.43 0.45 0.35 0.56 0.99 0.37 0.23 0.09 0.37 0.73 0.48 0.46 0.31 0.43 0.41 0.31 0.21 0.14 0.20 0.13 0.16 0.29 0.27 0.42 0.66 1.10 1.25 0.78 0.70 1.17 2.12 2.23 1.43 1.49 1.98 2.44 2.51 2.39 2.07 1.87 1.45 1.22 1.10 1.10
1.39 0.65 0.51 0.64 0.71 0.44 0.41 0.10 0.29 0.34 0.22 0.21 0.21 0.42 0.21 0.23 0.22 0.28 0.28 0.16 0.14 0.10 0.22 0.25 0.34 0.54 0.50 0.38 0.40 0.54 1.02 1.48 1.33 1.57 1.62 1.81 1.69 1.54 1.44 1.36 1.41 1.36 1.41 1.34
0.78 0.68 0.77 0.70 0.48 0.22 0.16 0.09 0.37 0.29 0.34 0.36 0.21 0.20 0.17 0.20 0.20 0.39 0.31 0.15 0.25 0.20 0.11 0.27 0.20 0.26 0.32 0.38 0.44 0.36 0.45 0.59 0.93 1.04 1.01 1.23 1.45 1.60 1.50 1.15 1.06 1.00 0.83 0.79
1.30 1.11 0.86 0.76 0.35 0.21 0.17 0.37 0.99 0.93 1.06 0.58 0.20 0.05 0.10 0.11 0.09 0.22 0.34 0.23 0.33 0.46 0.19 0.15 0.31 0.22 0.28 0.31 0.19 0.14 0.28 0.33 0.53 0.61 0.66 0.96 0.79 0.91 0.71 0.73 0.64 0.53 0.48 0.40
1.40 1.87 1.12 0.63 0.28 0.29 0.20 0.31 0.58 0.54 0.26 0.37 0.12 0.12 0.15 0.16 0.15 0.16 0.29 0.33 0.49 0.66 0.21 0.13 0.17 0.18 0.12 0.04 0.01 0.01 0.02 0.02 0.06 0.15 0.28 0.46 0.63 0.82 0.75 0.70 0.55 0.47 0.39 0.43
0.60 1.13 0.58 0.28 0.08 0.09 0.16 0.24 0.16 0.31 0.15 0.26 0.28 0.20 0.28 0.23 0.28 0.20 0.24 0.38 0.30 0.30 0.25 0.13 0.07 0.09 0.06 0.00 0.00 0.00 0.00 0.00 0.01 0.03 0.07 0.08 0.13 0.22 0.34 0.43 0.45 0.55 0.55 0.39
0.17 0.56 0.30 0.16 0.13 0.06 0.02 0.03 0.11 0.32 0.22 0.16 0.15 0.07 0.24 0.30 0.28 0.24 0.23 0.30 0.31 0.19 0.29 0.12 0.05 0.03 0.02 0.00 0.00 0.00 0.00 0.02 0.03 0.06 0.10 0.03 0.05 0.08 0.09 0.10 0.10 0.14 0.23 0.23
0.01 0.15 0.28 0.23 0.25 0.10 0.02 0.09 0.12 0.17 0.14 0.09 0.04 0.07 0.09 0.10 0.10 0.12 0.11 0.15 0.12 0.14 0.10 0.02 0.00 0.00 0.00 0.00 0.00 0.00 0.01 0.04 0.06 0.05 0.03 0.02 0.04 0.06 0.07 0.07 0.05 0.05 0.07 0.07
0.00 0.04 0.10 0.13 0.03 0.01 0.02 0.01 0.04 0.23 0.09 0.13 0.06 0.05 0.00 0.00 0.02 0.02 0.02 0.02 0.00 0.00 0.00 0.00 0.00 0.00 0.00 0.00 0.00 0.00 0.05 0.07 0.03 0.02 0.02 0.02 0.03 0.04 0.05 0.05 0.07 0.07 0.07 0.05
0.00 0.05 0.12 0.18 0.16 0.06 0.06 0.02 0.10 0.21 0.39 0.25 0.12 0.03 0.00 0.00 0.00 0.01 0.01 0.00 0.00 0.00 0.00 0.02 0.00 0.00 0.01 0.02 0.07 0.12 0.10 0.03 0.04 0.04 0.03 0.03 0.04 0.05 0.06 0.06 0.06 0.06 0.06 0.06
0.01 0.03 0.03 0.06 0.09 0.20 0.18 0.03 0.10 0.42 0.55 0.09 0.04 0.00 0.00 0.00 0.00 0.01 0.01 0.01 0.01 0.00 0.00 0.00 0.01 0.00 0.06 0.15 0.25 0.15 0.12 0.10 0.10 0.09 0.07 0.08 0.07 0.08 0.07 0.07 0.06 0.05 0.05 0.05
0.04 0.05 0.02 0.02 0.06 0.22 0.20 0.08 0.07 0.32 0.17 0.23 0.06 0.00 0.00 0.00 0.00 0.01 0.01 0.00 0.00 0.01 0.00 0.00 0.01 0.01 0.05 0.19 0.18 0.17 0.20 0.19 0.16 0.15 0.12 0.07 0.06 0.08 0.07 0.06 0.07 0.05 0.05 0.04
0.05 0.09 0.06 0.06 0.05 0.10 0.16 0.04 0.06 0.06 0.02 0.02 0.01 0.00 0.01 0.00 0.01 0.06 0.03 0.01 0.01 0.00 0.00 0.00 0.00 0.00 0.02 0.08 0.15 0.15 0.19 0.17 0.10 0.10 0.09 0.07 0.05 0.06 0.08 0.09 0.09 0.09 0.09 0.10
0.06 0.08 0.15 0.07 0.04 0.11 0.13 0.04 0.02 0.01 0.00 0.01 0.01 0.01 0.01 0.07 0.18 0.16 0.03 0.01 0.00 0.00 0.00 0.00 0.00 0.00 0.02 0.11 0.19 0.61 0.74 0.37 0.09 0.21 0.16 0.12 0.08 0.09 0.12 0.14 0.16 0.14 0.12 0.15
0.02 0.06 0.19 0.09 0.09 0.24 0.13 0.02 0.00 0.00 0.00 0.00 0.01 0.01 0.04 0.16 0.27 0.07 0.01 0.01 0.00 0.00 0.00 0.00 0.00 0.00 0.02 0.13 0.53 0.65 0.86 0.35 0.16 0.29 0.47 0.52 0.47 0.39 0.39 0.41 0.40 0.32 0.30 0.29
0.01 0.06 0.18 0.16 0.17 0.09 0.01 0.00 0.00 0.00 0.00 0.00 0.03 0.01 0.02 0.07 0.07 0.03 0.01 0.01 0.01 0.01 0.01 0.01 0.00 0.00 0.01 0.08 0.30 0.32 0.47 0.53 0.56 0.85 0.84 0.80 0.66 0.62 0.87 1.01 0.86 0.75 0.73 0.68
0.02 0.03 0.16 0.10 0.09 0.01 0.01 0.00 0.00 0.02 0.01 0.00 0.04 0.03 0.01 0.02 0.03 0.04 0.00 0.01 0.01 0.01 0.00 0.00 0.01 0.02 0.03 0.06 0.22 0.56 0.97 0.79 0.72 0.81 0.97 0.89 0.78 0.64 0.75 0.70 0.76 0.71 0.63 0.68
0.07 0.10 0.15 0.14 0.15 0.00 0.00 0.00 0.00 0.00 0.01 0.00 0.02 0.05 0.01 0.01 0.00 0.03 0.09 0.07 0.04 0.02 0.03 0.04 0.05 0.14 0.19 0.29 0.61 0.84 0.99 0.90 0.89 0.92 0.79 0.66 0.55 0.71 0.67 0.69 0.53 0.61 0.53 0.41
0.02 0.04 0.06 0.07 0.09 0.01 0.00 0.00 0.00 0.00 0.00 0.00 0.00 0.04 0.04 0.00 0.00 0.00 0.02 0.08 0.10 0.14 0.19 0.07 0.22 0.66 0.79 0.59 0.55 0.45 0.50 0.47 0.26 0.37 0.34 0.37 0.26 0.32 0.42 0.27 0.25 0.23 0.19 0.13
0.00 0.00 0.00 0.00 0.00 0.00 0.00 0.00 0.00 0.00 0.00 0.00 0.01 0.01 0.01 0.02 0.05 0.04 0.01 0.01 0.02 0.04 0.07 0.01 0.07 0.12 0.09 0.04 0.01 0.03 0.05 0.05 0.00 0.00 0.00 0.00 0.00 0.00 0.01 0.00 0.00 0.00 0.00 0.00
0.00 0.00 0.00 0.00 0.00 0.00 0.00 0.00 0.00 0.00 0.00 0.00 0.02 0.02 0.00 0.00 0.00 0.00 0.00 0.00 0.00 0.00 0.00 0.00 0.00 0.00 0.00 0.00 0.00 0.00 0.00 0.00 0.00 0.00 0.00 0.00 0.00 0.00 0.00 0.00 0.00 0.00 0.00 0.01
0.01 0.00 0.00 0.00 0.00 0.00 0.00 0.00 0.00 0.00 0.00 0.00 0.00 0.00 0.00 0.00 0.00 0.00 0.00 0.00 0.00 0.01 0.04 0.07 0.09 0.09 0.05 0.01 0.01 0.01 0.01 0.02 0.03 0.02 0.02 0.01 0.01 0.01 0.01 0.01 0.02 0.01 0.01 0.03
0.00 0.00 0.00 0.00 0.00 0.00 0.00 0.00 0.00 0.00 0.00 0.00 0.00 0.00 0.00 0.00 0.00 0.00 0.00 0.00 0.00 0.00 0.00 0.01 0.06 0.12 0.19 0.19 0.17 0.12 0.08 0.07 0.05 0.05 0.03 0.04 0.02 0.02 0.03 0.04 0.04 0.07 0.05 0.06

GFSCGP_prec_precacc_090.txt.gz
Total_Precipitation_Accumulation
2.98 1.91 0.65 0.44 0.57 0.34 0.35 0.29 0.60 0.54 0.54 0.62 0.93 0.67 0.24 0.16 0.20 0.18 0.07 0.05 0.21 0.49 1.00 1.21 0.84 0.70 0.79 0.70 0.72 0.51 0.42 0.36 0.40 0.58 0.55 0.73 0.87 1.16 1.32 1.03 0.79 0.63 0.61 0.53
2.21 1.02 0.27 0.34 0.66 0.31 0.23 0.21 0.63 0.83 0.70 0.69 0.63 0.86 0.43 0.17 0.16 0.15 0.17 0.13 0.21 0.45 0.86 1.25 1.64 0.81 0.73 1.33 1.53 1.13 0.82 0.77 0.53 0.65 0.64 0.56 0.78 0.93 1.09 1.29 1.02 0.96 0.75 0.60
1.21 0.46 0.40 0.56 0.91 0.34 0.15 0.09 0.39 1.21 0.91 0.60 0.49 0.58 0.69 0.27 0.15 0.12 0.15 0.18 0.28 0.45 0.47 0.92 1.74 1.30 1.13 1.54 1.56 1.29 1.21 1.05 1.13 1.05 1.35 1.16 1.15 1.02 1.21 1.32 1.18 1.25 1.16 0.97
1.43 0.45 0.35 0.56 0.99 0.38 0.24 0.09 0.39 0.76 0.51 0.47 0.31 0.43 0.41 0.31 0.21 0.15 0.22 0.20 0.22 0.33 0.27 0.45 0.77 1.17 1.32 0.81 0.71 1.17 2.22 2.48 1.57 1.57 2.33 2.71 2.60 2.47 2.14 2.16 1.77 1.51 1.41 1.41
1.39 0.65 0.51 0.64 0.71 0.44 0.42 0.11 0.31 0.35 0.23 0.23 0.21 0.48 0.21 0.23 0.22 0.28 0.28 0.16 0.15 0.10 0.22 0.26 0.44 0.65 0.53 0.40 0.41 0.56 1.07 1.87 1.93 1.84 2.24 2.41 2.08 1.73 1.56 1.49 1.60 1.54 1.63 1.60
0.78 0.68 0.77 0.70 0.48 0.22 0.17 0.12 0.43 0.33 0.36 0.41 0.21 0.25 0.18 0.20 0.20 0.39 0.31 0.15 0.26 0.21 0.13 0.29 0.22 0.28 0.32 0.38 0.46 0.41 0.56 0.88 1.69 1.60 1.60 1.69 1.86 2.04 1.77 1.34 1.27 1.22 1.01 0.99
1.30 1.11 0.86 0.76 0.35 0.23 0.21 0.51 1.14 1.05 1.08 0.63 0.20 0.06 0.11 0.11 0.10 0.22 0.35 0.24 0.34 0.47 0.28 0.29 0.40 0.36 0.37 0.40 0.29 0.25 0.43 0.57 0.82 0.92 0.93 1.17 0.97 1.13 0.99 0.91 0.78 0.69 0.62 0.51
1.40 1.87 1.12 0.63 0.28 0.33 0.27 0.47 0.77 0.64 0.31 0.39 0.13 0.13 0.15 0.17 0.16 0.17 0.32 0.43 0.68 0.94 0.49 0.32 0.33 0.37 0.34 0.18 0.11 0.09 0.15 0.14 0.15 0.23 0.41 0.62 0.78 1.00 0.94 0.85 0.67 0.56 0.45 0.47
0.60 1.13 0.58 0.28 0.08 0.12 0.23 0.32 0.22 0.33 0.16 0.27 0.31 0.25 0.31 0.25 0.30 0.22 0.29 0.51 0.67 0.73 0.62 0.37 0.23 0.27 0.22 0.07 0.03 0.02 0.03 0.03 0.02 0.03 0.08 0.09 0.15 0.27 0.39 0.49 0.51 0.62 0.65 0.50
0.17 0.57 0.30 0.16 0.13 0.06 0.02 0.03 0.14 0.36 0.26 0.21 0.22 0.15 0.36 0.39 0.40 0.38 0.35 0.43 0.48 0.40 0.52 0.33 0.19 0.18 0.09 0.01 0.00 0.00 0.00 0.02 0.03 0.06 0.10 0.03 0.05 0.08 0.11 0.14 0.13 0.16 0.28 0.31
0.01 0.16 0.28 0.23 0.25 0.10 0.02 0.09 0.12 0.17 0.15 0.12 0.05 0.10 0.22 0.23 0.22 0.28 0.25 0.28 0.29 0.36 0.28 0.12 0.09 0.06 0.03 0.00 0.00 0.00 0.01 0.04 0.06 0.05 0.03 0.02 0.04 0.06 0.07 0.07 0.05 0.05 0.07 0.07
0.00 0.04 0.10 0.13 0.03 0.01 0.02 0.01 0.04 0.23 0.09 0.13 0.06 0.06 0.04 0.06 0.06 0.09 0.06 0.05 0.03 0.06 0.04 0.02 0.01 0.00 0.00 0.00 0.00 0.00 0.05 0.07 0.03 0.02 0.02 0.02 0.03 0.04 0.05 0.05 0.07 0.07 0.07 0.05
0.00 0.05 0.12 0.18 0.16 0.06 0.06 0.02 0.10 0.21 0.39 0.25 0.12 0.04 0.00 0.01 0.01 0.03 0.01 0.01 0.00 0.00 0.00 0.02 0.00 0.00 0.01 0.02 0.07 0.12 0.10 0.03 0.04 0.04 0.03 0.03 0.04 0.05 0.06 0.06 0.06 0.06 0.06 0.06
0.01 0.03 0.03 0.06 0.09 0.20 0.18 0.03 0.10 0.42 0.55 0.09 0.04 0.00 0.00 0.00 0.00 0.01 0.01 0.01 0.01 0.00 0.00 0.00 0.01 0.00 0.06 0.15 0.25 0.15 0.12 0.10 0.10 0.09 0.07 0.08 0.07 0.08 0.07 0.07 0.06 0.05 0.05 0.05
0.04 0.05 0.02 0.02 0.06 0.22 0.20 0.08 0.07 0.32 0.17 0.23 0.06 0.00 0.00 0.00 0.00 0.01 0.01 0.00 0.00 0.01 0.00 0.00 0.01 0.01 0.05 0.19 0.18 0.17 0.20 0.19 0.16 0.15 0.12 0.07 0.06 0.08 0.07 0.06 0.07 0.05 0.05 0.04
0.05 0.09 0.06 0.06 0.05 0.10 0.16 0.04 0.06 0.06 0.02 0.02 0.01 0.00 0.01 0.00 0.01 0.06 0.03 0.01 0.01 0.00 0.00 0.00 0.00 0.00 0.02 0.08 0.15 0.15 0.19 0.17 0.10 0.10 0.09 0.07 0.05 0.06 0.08 0.09 0.09 0.09 0.09 0.10
0.06 0.08 0.15 0.07 0.04 0.11 0.13 0.04 0.02 0.01 0.00 0.01 0.01 0.01 0.01 0.07 0.18 0.16 0.03 0.01 0.00 0.00 0.00 0.00 0.00 0.00 0.02 0.11 0.19 0.61 0.74 0.37 0.09 0.21 0.16 0.12 0.08 0.09 0.12 0.14 0.16 0.14 0.12 0.15
0.02 0.06 0.19 0.09 0.09 0.24 0.13 0.02 0.00 0.00 0.00 0.00 0.01 0.01 0.04 0.16 0.27 0.07 0.01 0.01 0.00 0.00 0.00 0.00 0.00 0.00 0.02 0.13 0.53 0.65 0.86 0.35 0.16 0.29 0.47 0.52 0.47 0.39 0.39 0.41 0.40 0.32 0.30 0.29
0.01 0.06 0.18 0.16 0.17 0.09 0.01 0.00 0.00 0.00 0.00 0.00 0.03 0.01 0.02 0.07 0.07 0.03 0.01 0.01 0.01 0.01 0.01 0.01 0.00 0.00 0.01 0.08 0.30 0.32 0.47 0.53 0.56 0.85 0.84 0.80 0.66 0.62 0.87 1.01 0.86 0.75 0.73 0.68
0.02 0.03 0.16 0.10 0.09 0.01 0.01 0.00 0.00 0.02 0.01 0.00 0.04 0.03 0.01 0.02 0.03 0.04 0.00 0.01 0.01 0.01 0.00 0.00 0.01 0.02 0.03 0.06 0.22 0.56 0.97 0.79 0.72 0.81 0.97 0.89 0.78 0.64 0.75 0.70 0.76 0.71 0.63 0.68
0.07 0.10 0.15 0.14 0.15 0.00 0.00 0.00 0.00 0.00 0.01 0.00 0.02 0.05 0.01 0.01 0.00 0.03 0.09 0.07 0.04 0.02 0.03 0.04 0.05 0.14 0.19 0.29 0.61 0.84 0.99 0.90 0.89 0.92 0.79 0.66 0.55 0.71 0.67 0.69 0.53 0.61 0.53 0.41
0.02 0.04 0.06 0.07 0.09 0.01 0.00 0.00 0.00 0.00 0.00 0.00 0.00 0.04 0.04 0.00 0.00 0.00 0.02 0.08 0.10 0.14 0.19 0.07 0.22 0.66 0.79 0.59 0.55 0.45 0.50 0.47 0.26 0.37 0.34 0.37 0.26 0.32 0.42 0.27 0.25 0.23 0.19 0.13
0.00 0.00 0.00 0.00 0.00 0.00 0.00 0.00 0.00 0.00 0.00 0.00 0.01 0.01 0.01 0.02 0.05 0.04 0.01 0.01 0.02 0.04 0.07 0.01 0.07 0.12 0.09 0.04 0.01 0.03 0.05 0.05 0.00 0.00 0.00 0.00 0.00 0.00 0.01 0.00 0.00 0.00 0.00 0.00
0.00 0.00 0.00 0.00 0.00 0.00 0.00 0.00 0.00 0.00 0.00 0.00 0.02 0.02 0.00 0.00 0.00 0.00 0.00 0.00 0.00 0.00 0.00 0.00 0.00 0.00 0.00 0.00 0.00 0.00 0.00 0.00 0.00 0.00 0.00 0.00 0.00 0.00 0.00 0.00 0.00 0.00 0.00 0.01
0.01 0.00 0.00 0.00 0.00 0.00 0.00 0.00 0.00 0.00 0.00 0.00 0.00 0.00 0.00 0.00 0.00 0.00 0.00 0.00 0.00 0.01 0.04 0.07 0.09 0.09 0.05 0.01 0.01 0.01 0.01 0.02 0.03 0.02 0.02 0.01 0.01 0.01 0.01 0.01 0.02 0.01 0.01 0.03
0.00 0.00 0.00 0.00 0.00 0.00 0.00 0.00 0.00 0.00 0.00 0.00 0.00 0.00 0.00 0.00 0.00 0.00 0.00 0.00 0.00 0.00 0.00 0.01 0.06 0.12 0.19 0.19 0.17 0.12 0.08 0.07 0.05 0.05 0.03 0.04 0.02 0.02 0.03 0.04 0.04 0.07 0.05 0.06